Wetterdaten: Mittwoch, 09.06.2010
Datum Zeit Temp. Innen Temp. Aussen UV X Diff Temp. Feuchte Inne Feuchte Auss Sonnenschein Luftdruck Regen ab 0,1 Wind Sonnenschein Windben
09.06.2010 00:00 22,3 C 18,3 C 0,0 UV-I 0,0 C 63 % 81 % 0 % 1007,5 hPa 0,0 l/m 0,0 km/h (0 Bft) 0 min 0,0 km/h (0 Bft)
09.06.2010 00:10 22,3 C 17,9 C 0,0 UV-I 0,0 C 63 % 81 % 0 % 1007,5 hPa 0,0 l/m 0,0 km/h (0 Bft) 0 min 0,0 km/h (0 Bft)
09.06.2010 00:18 22,3 C 17,9 C 0,0 UV-I 0,0 C 63 % 82 % 0 % 1007,2 hPa 0,0 l/m 0,0 km/h (0 Bft) 0 min 0,0 km/h (0 Bft)
09.06.2010 00:22 22,3 C 17,8 C 0,0 UV-I 0,0 C 63 % 82 % 0 % 1007,2 hPa 0,0 l/m 0,0 km/h (0 Bft) 0 min 0,0 km/h (0 Bft)
09.06.2010 00:24 22,2 C 17,7 C 0,0 UV-I 0,0 C 62 % 82 % 0 % 1007,2 hPa 0,0 l/m 0,0 km/h (0 Bft) 0 min 0,0 km/h (0 Bft)
09.06.2010 00:30 22,2 C 17,6 C 0,0 UV-I 0,0 C 62 % 82 % 0 % 1007,2 hPa 0,0 l/m 0,0 km/h (0 Bft) 0 min 0,0 km/h (0 Bft)
09.06.2010 00:32 22,2 C 17,6 C 0,0 UV-I 0,0 C 62 % 82 % 0 % 1006,9 hPa 0,0 l/m 0,0 km/h (0 Bft) 0 min 0,0 km/h (0 Bft)
09.06.2010 00:34 22,2 C 17,6 C 0,0 UV-I 0,0 C 62 % 82 % 0 % 1006,9 hPa 0,0 l/m 0,0 km/h (0 Bft) 0 min 0,0 km/h (0 Bft)
09.06.2010 00:40 22,2 C 17,7 C 0,0 UV-I 0,0 C 62 % 83 % 0 % 1006,9 hPa 0,0 l/m 0,0 km/h (0 Bft) 0 min 0,0 km/h (0 Bft)
09.06.2010 00:42 22,2 C 17,6 C 0,0 UV-I 0,0 C 62 % 83 % 0 % 1006,9 hPa 0,0 l/m 0,0 km/h (0 Bft) 0 min 0,0 km/h (0 Bft)
09.06.2010 00:44 22,2 C 17,6 C 0,0 UV-I 0,0 C 62 % 83 % 0 % 1006,9 hPa 0,0 l/m 0,0 km/h (0 Bft) 0 min 0,0 km/h (0 Bft)
09.06.2010 00:46 22,2 C 17,6 C 0,0 UV-I 0,0 C 62 % 83 % 0 % 1006,9 hPa 0,0 l/m 0,0 km/h (0 Bft) 0 min 0,0 km/h (0 Bft)
09.06.2010 00:52 22,2 C 17,5 C 0,0 UV-I 0,0 C 63 % 83 % 0 % 1007,2 hPa 0,0 l/m 0,0 km/h (0 Bft) 0 min 0,0 km/h (0 Bft)
09.06.2010 01:08 22,2 C 17,3 C 0,0 UV-I 0,0 C 63 % 83 % 0 % 1007,2 hPa 0,0 l/m 0,0 km/h (0 Bft) 0 min 0,0 km/h (0 Bft)
09.06.2010 01:12 22,1 C 17,2 C 0,0 UV-I 0,0 C 63 % 84 % 0 % 1007,4 hPa 0,0 l/m 0,0 km/h (0 Bft) 0 min 0,0 km/h (0 Bft)
09.06.2010 01:14 22,1 C 17,2 C 0,0 UV-I 0,0 C 63 % 84 % 0 % 1007,4 hPa 0,0 l/m 0,0 km/h (0 Bft) 0 min 0,0 km/h (0 Bft)
09.06.2010 01:16 22,1 C 17,2 C 0,0 UV-I 0,0 C 63 % 84 % 0 % 1007,4 hPa 0,0 l/m 0,0 km/h (0 Bft) 0 min 0,0 km/h (0 Bft)
09.06.2010 01:18 22,1 C 17,2 C 0,0 UV-I 0,0 C 63 % 84 % 0 % 1007,4 hPa 0,0 l/m 0,0 km/h (0 Bft) 0 min 0,0 km/h (0 Bft)
09.06.2010 01:23 22,1 C 17,3 C 0,0 UV-I 0,0 C 63 % 84 % 0 % 1007,4 hPa 0,0 l/m 0,0 km/h (0 Bft) 0 min 0,0 km/h (0 Bft)
09.06.2010 01:28 22,1 C 17,3 C 0,0 UV-I 0,0 C 63 % 84 % 0 % 1007,4 hPa 0,0 l/m 0,0 km/h (0 Bft) 0 min 0,0 km/h (0 Bft)
09.06.2010 01:33 22,1 C 17,2 C 0,0 UV-I 0,0 C 63 % 84 % 0 % 1007,0 hPa 0,0 l/m 0,0 km/h (0 Bft) 0 min 0,0 km/h (0 Bft)
09.06.2010 01:38 22,1 C 17,2 C 0,0 UV-I 0,0 C 63 % 84 % 0 % 1007,0 hPa 0,0 l/m 0,4 km/h (0 Bft) 0 min 0,0 km/h (0 Bft)
09.06.2010 01:43 22,1 C 17,1 C 0,0 UV-I 0,0 C 63 % 84 % 0 % 1007,0 hPa 0,0 l/m 0,4 km/h (0 Bft) 0 min 0,0 km/h (0 Bft)
09.06.2010 01:48 22,0 C 17,1 C 0,0 UV-I 0,0 C 63 % 84 % 0 % 1007,0 hPa 0,0 l/m 0,0 km/h (0 Bft) 0 min 0,0 km/h (0 Bft)
09.06.2010 01:53 22,0 C 17,1 C 0,0 UV-I 0,0 C 63 % 84 % 0 % 1007,2 hPa 0,0 l/m 0,0 km/h (0 Bft) 0 min 0,0 km/h (0 Bft)
09.06.2010 01:58 22,0 C 17,0 C 0,0 UV-I 0,0 C 63 % 85 % 0 % 1007,2 hPa 0,0 l/m 0,0 km/h (0 Bft) 0 min 0,0 km/h (0 Bft)
09.06.2010 02:03 22,0 C 17,0 C 0,0 UV-I 0,0 C 63 % 85 % 0 % 1007,2 hPa 0,0 l/m 0,8 km/h (0 Bft) 0 min 0,0 km/h (0 Bft)
09.06.2010 02:08 22,0 C 16,9 C 0,0 UV-I 0,0 C 63 % 85 % 0 % 1007,2 hPa 0,0 l/m 0,8 km/h (0 Bft) 0 min 0,0 km/h (0 Bft)
09.06.2010 02:13 22,0 C 16,9 C 0,0 UV-I 0,0 C 63 % 85 % 0 % 1007,4 hPa 0,0 l/m 0,0 km/h (0 Bft) 0 min 0,0 km/h (0 Bft)
09.06.2010 02:18 22,0 C 16,9 C 0,0 UV-I 0,0 C 63 % 86 % 0 % 1007,4 hPa 0,0 l/m 0,0 km/h (0 Bft) 0 min 0,0 km/h (0 Bft)
09.06.2010 02:23 22,0 C 16,9 C 0,0 UV-I 0,0 C 63 % 86 % 0 % 1007,4 hPa 0,0 l/m 0,0 km/h (0 Bft) 0 min 0,0 km/h (0 Bft)
09.06.2010 02:28 22,0 C 16,9 C 0,0 UV-I 0,0 C 63 % 86 % 0 % 1007,4 hPa 0,0 l/m 0,0 km/h (0 Bft) 0 min 0,0 km/h (0 Bft)
09.06.2010 02:33 22,0 C 16,8 C 0,0 UV-I 0,0 C 63 % 86 % 0 % 1007,3 hPa 0,0 l/m 0,0 km/h (0 Bft) 0 min 0,0 km/h (0 Bft)
09.06.2010 02:38 22,0 C 16,8 C 0,0 UV-I 0,0 C 63 % 86 % 0 % 1007,3 hPa 0,0 l/m 0,0 km/h (0 Bft) 0 min 0,0 km/h (0 Bft)
09.06.2010 02:43 22,0 C 16,8 C 0,0 UV-I 0,0 C 63 % 86 % 0 % 1007,3 hPa 0,0 l/m 0,0 km/h (0 Bft) 0 min 0,0 km/h (0 Bft)
09.06.2010 02:48 22,0 C 16,9 C 0,0 UV-I 0,0 C 63 % 86 % 0 % 1007,3 hPa 0,0 l/m 0,0 km/h (0 Bft) 0 min 0,0 km/h (0 Bft)
09.06.2010 02:53 22,0 C 16,8 C 0,0 UV-I 0,0 C 63 % 86 % 0 % 1007,2 hPa 0,0 l/m 0,0 km/h (0 Bft) 0 min 0,0 km/h (0 Bft)
09.06.2010 02:58 22,0 C 16,8 C 0,0 UV-I 0,0 C 63 % 86 % 0 % 1007,2 hPa 0,0 l/m 0,0 km/h (0 Bft) 0 min 0,0 km/h (0 Bft)
09.06.2010 03:03 21,9 C 16,9 C 0,0 UV-I 0,0 C 63 % 86 % 0 % 1007,2 hPa 0,0 l/m 0,0 km/h (0 Bft) 0 min 0,0 km/h (0 Bft)
09.06.2010 03:08 22,0 C 16,9 C 0,0 UV-I 0,0 C 63 % 86 % 0 % 1007,2 hPa 0,0 l/m 0,0 km/h (0 Bft) 0 min 0,0 km/h (0 Bft)
09.06.2010 03:13 21,9 C 16,9 C 0,0 UV-I 0,0 C 63 % 86 % 0 % 1007,1 hPa 0,0 l/m 0,0 km/h (0 Bft) 0 min 0,0 km/h (0 Bft)
09.06.2010 03:18 21,9 C 16,8 C 0,0 UV-I 0,0 C 63 % 86 % 0 % 1007,1 hPa 0,0 l/m 0,0 km/h (0 Bft) 0 min 0,0 km/h (0 Bft)
09.06.2010 03:23 21,9 C 16,8 C 0,0 UV-I 0,0 C 63 % 86 % 0 % 1007,1 hPa 0,0 l/m 0,0 km/h (0 Bft) 0 min 3,9 km/h (1 Bft)
09.06.2010 03:28 21,9 C 16,7 C 0,0 UV-I 0,0 C 63 % 86 % 0 % 1007,1 hPa 0,0 l/m 0,8 km/h (0 Bft) 0 min 0,0 km/h (0 Bft)
09.06.2010 03:33 21,9 C 16,7 C 0,0 UV-I 0,0 C 63 % 86 % 0 % 1007,0 hPa 0,0 l/m 0,8 km/h (0 Bft) 0 min 0,0 km/h (0 Bft)
09.06.2010 03:38 21,9 C 16,6 C 0,0 UV-I 0,0 C 63 % 86 % 0 % 1007,0 hPa 0,0 l/m 0,0 km/h (0 Bft) 0 min 0,0 km/h (0 Bft)
09.06.2010 03:43 21,9 C 16,7 C 0,0 UV-I 0,0 C 63 % 86 % 0 % 1007,0 hPa 0,0 l/m 0,0 km/h (0 Bft) 0 min 0,0 km/h (0 Bft)
09.06.2010 03:48 21,8 C 16,5 C 0,0 UV-I 0,0 C 63 % 86 % 0 % 1007,0 hPa 0,0 l/m 0,0 km/h (0 Bft) 0 min 0,0 km/h (0 Bft)
09.06.2010 03:53 21,8 C 16,5 C 0,0 UV-I 0,0 C 63 % 87 % 0 % 1007,1 hPa 0,0 l/m 0,0 km/h (0 Bft) 0 min 0,0 km/h (0 Bft)
09.06.2010 03:58 21,8 C 16,5 C 0,0 UV-I 0,0 C 63 % 87 % 0 % 1007,1 hPa 0,0 l/m 0,0 km/h (0 Bft) 0 min 0,0 km/h (0 Bft)
09.06.2010 04:03 21,8 C 16,4 C 0,0 UV-I 0,0 C 63 % 87 % 0 % 1007,1 hPa 0,0 l/m 0,0 km/h (0 Bft) 0 min 0,0 km/h (0 Bft)
09.06.2010 04:08 21,8 C 16,3 C 0,0 UV-I 0,0 C 64 % 87 % 0 % 1007,1 hPa 0,0 l/m 0,0 km/h (0 Bft) 0 min 0,0 km/h (0 Bft)
09.06.2010 04:13 21,8 C 16,3 C 0,0 UV-I 0,0 C 64 % 87 % 0 % 1007,2 hPa 0,0 l/m 0,0 km/h (0 Bft) 0 min 0,0 km/h (0 Bft)
09.06.2010 04:18 21,8 C 16,2 C 0,0 UV-I 0,0 C 63 % 88 % 0 % 1007,2 hPa 0,0 l/m 0,0 km/h (0 Bft) 0 min 0,0 km/h (0 Bft)
09.06.2010 04:20 21,8 C 16,2 C 0,0 UV-I 0,0 C 63 % 88 % 0 % 1007,2 hPa 0,0 l/m 0,0 km/h (0 Bft) 0 min 0,0 km/h (0 Bft)
09.06.2010 04:22 21,8 C 16,3 C 0,1 UV-I 0,0 C 64 % 88 % 0 % 1007,2 hPa 0,0 l/m 0,0 km/h (0 Bft) 0 min 0,0 km/h (0 Bft)
09.06.2010 04:24 21,8 C 16,3 C 0,1 UV-I 0,0 C 64 % 88 % 0 % 1007,2 hPa 0,0 l/m 0,0 km/h (0 Bft) 0 min 0,0 km/h (0 Bft)
09.06.2010 04:26 21,8 C 16,3 C 0,0 UV-I 0,0 C 64 % 88 % 0 % 1007,2 hPa 0,0 l/m 0,0 km/h (0 Bft) 0 min 4,8 km/h (1 Bft)
09.06.2010 04:28 21,7 C 16,3 C 0,0 UV-I 0,0 C 64 % 88 % 0 % 1007,2 hPa 0,0 l/m 0,4 km/h (0 Bft) 0 min 0,0 km/h (0 Bft)
09.06.2010 04:30 21,7 C 16,2 C 0,0 UV-I 0,0 C 63 % 88 % 0 % 1007,2 hPa 0,0 l/m 0,4 km/h (0 Bft) 0 min 6,4 km/h (2 Bft)
09.06.2010 04:32 21,7 C 16,3 C 0,0 UV-I 0,0 C 63 % 88 % 0 % 1007,0 hPa 0,0 l/m 0,4 km/h (0 Bft) 0 min 0,0 km/h (0 Bft)
09.06.2010 04:34 21,7 C 16,3 C 0,0 UV-I 0,0 C 64 % 88 % 0 % 1007,0 hPa 0,0 l/m 0,4 km/h (0 Bft) 0 min 0,0 km/h (0 Bft)
09.06.2010 04:36 21,7 C 16,3 C 0,0 UV-I 0,0 C 64 % 88 % 0 % 1007,0 hPa 0,0 l/m 0,4 km/h (0 Bft) 0 min 0,0 km/h (0 Bft)
09.06.2010 04:38 21,7 C 16,2 C 0,0 UV-I 0,0 C 63 % 88 % 0 % 1007,0 hPa 0,0 l/m 0,0 km/h (0 Bft) 0 min 0,0 km/h (0 Bft)
09.06.2010 04:40 21,7 C 16,2 C 0,0 UV-I 0,0 C 64 % 88 % 0 % 1007,0 hPa 0,0 l/m 0,0 km/h (0 Bft) 0 min 0,0 km/h (0 Bft)
09.06.2010 04:42 21,7 C 16,2 C 0,0 UV-I 0,0 C 64 % 88 % 0 % 1007,0 hPa 0,0 l/m 0,0 km/h (0 Bft) 0 min 0,0 km/h (0 Bft)
09.06.2010 04:44 21,7 C 16,2 C 0,0 UV-I 0,0 C 63 % 88 % 0 % 1007,0 hPa 0,0 l/m 0,0 km/h (0 Bft) 0 min 0,0 km/h (0 Bft)
09.06.2010 04:46 21,7 C 16,2 C 0,0 UV-I 0,0 C 63 % 88 % 0 % 1007,0 hPa 0,0 l/m 0,0 km/h (0 Bft) 0 min 0,0 km/h (0 Bft)
09.06.2010 04:48 21,7 C 16,3 C 0,0 UV-I 0,0 C 63 % 88 % 0 % 1007,0 hPa 0,0 l/m 0,0 km/h (0 Bft) 0 min 0,0 km/h (0 Bft)
09.06.2010 04:50 21,7 C 16,3 C 0,0 UV-I 0,0 C 63 % 88 % 0 % 1007,0 hPa 0,0 l/m 0,0 km/h (0 Bft) 0 min 0,0 km/h (0 Bft)
09.06.2010 04:52 21,7 C 16,2 C 0,0 UV-I 0,0 C 63 % 88 % 0 % 1006,8 hPa 0,0 l/m 0,0 km/h (0 Bft) 0 min 0,0 km/h (0 Bft)
09.06.2010 04:54 21,7 C 16,3 C 0,0 UV-I 0,0 C 63 % 88 % 0 % 1006,8 hPa 0,0 l/m 0,0 km/h (0 Bft) 0 min 0,0 km/h (0 Bft)
09.06.2010 04:56 21,7 C 16,3 C 0,0 UV-I 0,0 C 64 % 88 % 0 % 1006,8 hPa 0,0 l/m 0,0 km/h (0 Bft) 0 min 0,0 km/h (0 Bft)
09.06.2010 04:58 21,6 C 16,3 C 0,0 UV-I 0,0 C 63 % 88 % 0 % 1006,8 hPa 0,0 l/m 0,0 km/h (0 Bft) 0 min 0,0 km/h (0 Bft)
09.06.2010 05:00 21,6 C 16,3 C 0,0 UV-I 0,0 C 64 % 88 % 0 % 1006,8 hPa 0,0 l/m 0,0 km/h (0 Bft) 0 min 0,0 km/h (0 Bft)
09.06.2010 05:02 21,6 C 16,2 C 0,0 UV-I 0,0 C 64 % 88 % 0 % 1006,8 hPa 0,0 l/m 0,0 km/h (0 Bft) 0 min 0,0 km/h (0 Bft)
09.06.2010 05:04 21,6 C 16,2 C 0,0 UV-I 0,0 C 64 % 88 % 0 % 1006,8 hPa 0,0 l/m 0,0 km/h (0 Bft) 0 min 0,0 km/h (0 Bft)
09.06.2010 05:06 21,6 C 16,1 C 0,0 UV-I 0,0 C 64 % 88 % 0 % 1006,8 hPa 0,0 l/m 0,0 km/h (0 Bft) 0 min 3,5 km/h (1 Bft)
09.06.2010 05:08 21,6 C 16,1 C 0,0 UV-I 0,0 C 64 % 88 % 0 % 1006,8 hPa 0,0 l/m 0,0 km/h (0 Bft) 0 min 0,0 km/h (0 Bft)
09.06.2010 05:10 21,6 C 16,1 C 0,0 UV-I 0,0 C 63 % 88 % 0 % 1006,8 hPa 0,0 l/m 0,0 km/h (0 Bft) 0 min 0,0 km/h (0 Bft)
09.06.2010 05:12 21,6 C 16,1 C 0,0 UV-I 0,0 C 64 % 88 % 0 % 1007,0 hPa 0,0 l/m 0,0 km/h (0 Bft) 0 min 0,0 km/h (0 Bft)
09.06.2010 05:14 21,6 C 16,0 C 0,0 UV-I 0,0 C 64 % 88 % 0 % 1007,0 hPa 0,0 l/m 0,0 km/h (0 Bft) 0 min 3,2 km/h (1 Bft)
09.06.2010 05:16 21,6 C 16,1 C 0,0 UV-I 0,0 C 64 % 88 % 0 % 1007,0 hPa 0,0 l/m 0,0 km/h (0 Bft) 0 min 0,0 km/h (0 Bft)
09.06.2010 05:18 21,6 C 16,0 C 0,0 UV-I 0,0 C 64 % 88 % 0 % 1007,0 hPa 0,0 l/m 0,4 km/h (0 Bft) 0 min 3,9 km/h (1 Bft)
09.06.2010 05:20 21,6 C 16,0 C 0,0 UV-I 0,0 C 64 % 88 % 0 % 1007,0 hPa 0,0 l/m 0,4 km/h (0 Bft) 0 min 0,0 km/h (0 Bft)
09.06.2010 05:22 21,6 C 16,0 C 0,1 UV-I 0,0 C 64 % 88 % 0 % 1007,0 hPa 0,0 l/m 0,4 km/h (0 Bft) 0 min 0,0 km/h (0 Bft)
09.06.2010 05:24 21,6 C 16,1 C 0,1 UV-I 0,0 C 64 % 88 % 0 % 1007,0 hPa 0,0 l/m 0,4 km/h (0 Bft) 0 min 0,0 km/h (0 Bft)
09.06.2010 05:26 21,6 C 16,0 C 0,1 UV-I 0,0 C 64 % 88 % 0 % 1007,0 hPa 0,0 l/m 0,4 km/h (0 Bft) 0 min 0,0 km/h (0 Bft)
09.06.2010 05:28 21,6 C 15,9 C 0,1 UV-I 0,0 C 64 % 88 % 0 % 1007,0 hPa 0,0 l/m 0,0 km/h (0 Bft) 0 min 0,0 km/h (0 Bft)
09.06.2010 05:30 21,6 C 15,9 C 0,1 UV-I 0,0 C 64 % 88 % 0 % 1007,0 hPa 0,0 l/m 0,0 km/h (0 Bft) 0 min 0,0 km/h (0 Bft)
09.06.2010 05:32 21,6 C 15,9 C 0,1 UV-I 0,0 C 64 % 88 % 0 % 1007,0 hPa 0,0 l/m 0,0 km/h (0 Bft) 0 min 0,0 km/h (0 Bft)
09.06.2010 05:34 21,6 C 15,9 C 0,1 UV-I 0,0 C 63 % 88 % 0 % 1007,0 hPa 0,0 l/m 0,0 km/h (0 Bft) 0 min 0,0 km/h (0 Bft)
09.06.2010 05:36 21,6 C 15,9 C 0,1 UV-I 0,0 C 64 % 88 % 0 % 1007,0 hPa 0,0 l/m 0,0 km/h (0 Bft) 0 min 0,0 km/h (0 Bft)
09.06.2010 05:38 21,6 C 15,9 C 0,1 UV-I 0,0 C 64 % 88 % 0 % 1007,0 hPa 0,0 l/m 0,0 km/h (0 Bft) 0 min 0,0 km/h (0 Bft)
09.06.2010 05:40 21,6 C 15,8 C 0,1 UV-I 0,0 C 64 % 88 % 0 % 1007,0 hPa 0,0 l/m 0,0 km/h (0 Bft) 0 min 0,0 km/h (0 Bft)
09.06.2010 05:42 21,6 C 15,7 C 0,1 UV-I 0,0 C 64 % 88 % 0 % 1007,0 hPa 0,0 l/m 0,0 km/h (0 Bft) 0 min 3,2 km/h (1 Bft)
09.06.2010 05:44 21,5 C 15,7 C 0,1 UV-I 0,0 C 64 % 88 % 0 % 1007,0 hPa 0,0 l/m 0,4 km/h (0 Bft) 0 min 0,0 km/h (0 Bft)
09.06.2010 05:46 21,5 C 15,8 C 0,2 UV-I 0,0 C 64 % 88 % 0 % 1007,0 hPa 0,0 l/m 0,4 km/h (0 Bft) 0 min 0,0 km/h (0 Bft)
09.06.2010 05:48 21,5 C 15,7 C 0,2 UV-I 0,0 C 64 % 88 % 0 % 1007,0 hPa 0,0 l/m 0,4 km/h (0 Bft) 0 min 0,0 km/h (0 Bft)
09.06.2010 05:50 21,5 C 15,7 C 0,2 UV-I 0,0 C 64 % 88 % 0 % 1007,0 hPa 0,0 l/m 0,4 km/h (0 Bft) 0 min 0,0 km/h (0 Bft)
09.06.2010 05:52 21,5 C 15,7 C 0,2 UV-I 0,0 C 64 % 88 % 0 % 1007,0 hPa 0,0 l/m 0,4 km/h (0 Bft) 0 min 0,0 km/h (0 Bft)
09.06.2010 05:54 21,5 C 15,7 C 0,2 UV-I 0,0 C 64 % 88 % 0 % 1007,0 hPa 0,0 l/m 0,0 km/h (0 Bft) 0 min 0,0 km/h (0 Bft)
09.06.2010 05:56 21,5 C 15,6 C 0,3 UV-I 0,0 C 64 % 88 % 0 % 1007,0 hPa 0,0 l/m 0,0 km/h (0 Bft) 0 min 0,0 km/h (0 Bft)
09.06.2010 05:58 21,5 C 15,6 C 0,3 UV-I 0,0 C 64 % 88 % 0 % 1007,0 hPa 0,0 l/m 0,0 km/h (0 Bft) 0 min 0,0 km/h (0 Bft)
09.06.2010 06:00 21,5 C 15,6 C 0,3 UV-I 0,0 C 64 % 88 % 0 % 1007,0 hPa 0,0 l/m 0,0 km/h (0 Bft) 0 min 0,0 km/h (0 Bft)
09.06.2010 06:02 21,5 C 15,7 C 0,4 UV-I 0,0 C 64 % 88 % 0 % 1007,0 hPa 0,0 l/m 0,0 km/h (0 Bft) 0 min 0,0 km/h (0 Bft)
09.06.2010 06:04 21,5 C 15,6 C 0,4 UV-I 0,0 C 64 % 88 % 0 % 1007,0 hPa 0,0 l/m 0,0 km/h (0 Bft) 0 min 0,0 km/h (0 Bft)
09.06.2010 06:06 21,5 C 15,6 C 0,4 UV-I 0,0 C 64 % 88 % 0 % 1007,0 hPa 0,0 l/m 0,0 km/h (0 Bft) 0 min 0,0 km/h (0 Bft)
09.06.2010 06:10 21,4 C 15,6 C 0,4 UV-I 0,0 C 64 % 89 % 0 % 1007,0 hPa 0,0 l/m 0,0 km/h (0 Bft) 0 min 0,0 km/h (0 Bft)
09.06.2010 06:12 21,5 C 15,7 C 0,4 UV-I 0,0 C 64 % 89 % 0 % 1006,7 hPa 0,0 l/m 0,0 km/h (0 Bft) 0 min 0,0 km/h (0 Bft)
09.06.2010 06:14 21,4 C 15,7 C 0,4 UV-I 0,0 C 64 % 89 % 0 % 1006,7 hPa 0,0 l/m 0,0 km/h (0 Bft) 0 min 0,0 km/h (0 Bft)
09.06.2010 06:16 21,4 C 15,7 C 0,4 UV-I 0,0 C 64 % 89 % 0 % 1006,7 hPa 0,0 l/m 0,0 km/h (0 Bft) 0 min 3,5 km/h (1 Bft)
09.06.2010 06:18 21,4 C 15,6 C 0,4 UV-I 0,0 C 64 % 89 % 0 % 1006,7 hPa 0,0 l/m 0,0 km/h (0 Bft) 0 min 0,0 km/h (0 Bft)
09.06.2010 06:22 21,4 C 15,6 C 0,5 UV-I 0,0 C 64 % 89 % 0 % 1006,7 hPa 0,0 l/m 0,4 km/h (0 Bft) 0 min 3,5 km/h (1 Bft)
09.06.2010 06:24 21,4 C 15,6 C 0,5 UV-I 0,0 C 64 % 89 % 0 % 1006,7 hPa 0,0 l/m 0,8 km/h (0 Bft) 0 min 0,0 km/h (0 Bft)
09.06.2010 06:26 21,4 C 15,7 C 0,6 UV-I 0,0 C 64 % 89 % 0 % 1006,7 hPa 0,0 l/m 0,8 km/h (0 Bft) 0 min 0,0 km/h (0 Bft)
09.06.2010 06:28 21,4 C 15,7 C 0,6 UV-I 0,0 C 64 % 89 % 0 % 1006,7 hPa 0,0 l/m 0,8 km/h (0 Bft) 0 min 0,0 km/h (0 Bft)
09.06.2010 06:30 21,4 C 15,7 C 0,6 UV-I 0,0 C 64 % 89 % 0 % 1006,7 hPa 0,0 l/m 0,8 km/h (0 Bft) 0 min 3,9 km/h (1 Bft)
09.06.2010 06:32 21,4 C 15,7 C 0,8 UV-I 0,0 C 64 % 89 % 0 % 1007,1 hPa 0,0 l/m 0,8 km/h (0 Bft) 0 min 0,0 km/h (0 Bft)
09.06.2010 06:34 21,4 C 15,7 C 0,8 UV-I 0,0 C 64 % 89 % 0 % 1007,1 hPa 0,0 l/m 0,4 km/h (0 Bft) 0 min 0,0 km/h (0 Bft)
09.06.2010 06:36 21,4 C 15,7 C 0,9 UV-I 0,0 C 64 % 89 % 0 % 1007,1 hPa 0,0 l/m 0,8 km/h (0 Bft) 0 min 0,0 km/h (0 Bft)
09.06.2010 06:38 21,5 C 15,8 C 0,9 UV-I 0,0 C 64 % 89 % 0 % 1007,1 hPa 0,0 l/m 0,8 km/h (0 Bft) 0 min 0,0 km/h (0 Bft)
09.06.2010 06:40 21,5 C 15,7 C 0,9 UV-I 0,0 C 64 % 89 % 0 % 1007,1 hPa 0,0 l/m 0,8 km/h (0 Bft) 0 min 0,0 km/h (0 Bft)
09.06.2010 06:42 21,5 C 15,8 C 0,9 UV-I 0,0 C 64 % 89 % 0 % 1007,1 hPa 0,0 l/m 0,8 km/h (0 Bft) 0 min 5,1 km/h (1 Bft)
09.06.2010 06:44 21,5 C 15,9 C 0,9 UV-I 0,0 C 64 % 89 % 0 % 1007,1 hPa 0,0 l/m 0,8 km/h (0 Bft) 0 min 3,2 km/h (1 Bft)
09.06.2010 06:46 21,5 C 15,9 C 0,8 UV-I 0,0 C 64 % 89 % 0 % 1007,1 hPa 0,0 l/m 0,8 km/h (0 Bft) 0 min 4,2 km/h (1 Bft)
09.06.2010 06:50 21,5 C 15,9 C 0,8 UV-I 0,0 C 64 % 89 % 0 % 1007,1 hPa 0,0 l/m 0,8 km/h (0 Bft) 0 min 0,0 km/h (0 Bft)
09.06.2010 06:52 21,5 C 15,9 C 0,8 UV-I 0,0 C 64 % 89 % 0 % 1007,2 hPa 0,0 l/m 1,2 km/h (1 Bft) 0 min 0,0 km/h (0 Bft)
09.06.2010 06:56 21,5 C 16,0 C 0,8 UV-I 0,0 C 64 % 89 % 0 % 1007,2 hPa 0,0 l/m 0,4 km/h (0 Bft) 0 min 0,0 km/h (0 Bft)
09.06.2010 06:58 21,5 C 16,0 C 0,8 UV-I 0,0 C 64 % 89 % 0 % 1007,2 hPa 0,0 l/m 0,4 km/h (0 Bft) 0 min 0,0 km/h (0 Bft)
09.06.2010 07:00 21,5 C 16,0 C 0,8 UV-I 0,0 C 64 % 89 % 0 % 1007,2 hPa 0,0 l/m 0,4 km/h (0 Bft) 0 min 0,0 km/h (0 Bft)
09.06.2010 07:02 21,5 C 16,1 C 1,1 UV-I 0,0 C 64 % 89 % 0 % 1007,2 hPa 0,0 l/m 0,4 km/h (0 Bft) 0 min 0,0 km/h (0 Bft)
09.06.2010 07:04 21,5 C 16,0 C 1,1 UV-I 0,2 C 64 % 89 % 6 % 1007,2 hPa 0,0 l/m 0,4 km/h (0 Bft) 0 min 0,0 km/h (0 Bft)
09.06.2010 07:06 21,5 C 16,1 C 1,1 UV-I 0,2 C 64 % 89 % 6 % 1007,2 hPa 0,0 l/m 0,4 km/h (0 Bft) 0 min 0,0 km/h (0 Bft)
09.06.2010 07:08 21,5 C 16,1 C 1,1 UV-I 0,3 C 64 % 89 % 9 % 1007,2 hPa 0,0 l/m 0,4 km/h (0 Bft) 0 min 0,0 km/h (0 Bft)
09.06.2010 07:10 21,5 C 16,3 C 1,1 UV-I 0,2 C 64 % 89 % 6 % 1007,2 hPa 0,0 l/m 0,0 km/h (0 Bft) 0 min 0,0 km/h (0 Bft)
09.06.2010 07:12 21,6 C 16,3 C 1,0 UV-I 0,2 C 64 % 88 % 6 % 1007,3 hPa 0,0 l/m 0,4 km/h (0 Bft) 0 min 0,0 km/h (0 Bft)
09.06.2010 07:14 21,6 C 16,3 C 1,0 UV-I 0,2 C 64 % 88 % 6 % 1007,3 hPa 0,0 l/m 0,4 km/h (0 Bft) 0 min 3,5 km/h (1 Bft)
09.06.2010 07:16 21,6 C 16,3 C 1,0 UV-I 0,3 C 64 % 88 % 9 % 1007,3 hPa 0,0 l/m 1,2 km/h (1 Bft) 0 min 4,2 km/h (1 Bft)
09.06.2010 07:18 21,6 C 16,4 C 1,0 UV-I 0,2 C 64 % 88 % 6 % 1007,3 hPa 0,0 l/m 1,6 km/h (1 Bft) 0 min 4,8 km/h (1 Bft)
09.06.2010 07:20 21,6 C 16,4 C 1,0 UV-I 0,2 C 64 % 88 % 6 % 1007,3 hPa 0,0 l/m 2,0 km/h (1 Bft) 0 min 4,2 km/h (1 Bft)
09.06.2010 07:22 21,6 C 16,5 C 0,9 UV-I 0,1 C 64 % 89 % 3 % 1007,3 hPa 0,0 l/m 2,4 km/h (1 Bft) 0 min 7,4 km/h (2 Bft)
09.06.2010 07:24 21,6 C 16,5 C 0,9 UV-I 0,0 C 64 % 89 % 0 % 1007,3 hPa 0,0 l/m 2,4 km/h (1 Bft) 0 min 0,0 km/h (0 Bft)
09.06.2010 07:28 21,6 C 16,4 C 0,9 UV-I 0,2 C 64 % 88 % 6 % 1007,3 hPa 0,0 l/m 1,6 km/h (1 Bft) 0 min 0,0 km/h (0 Bft)
09.06.2010 07:30 21,6 C 16,5 C 0,9 UV-I 0,1 C 64 % 89 % 3 % 1007,3 hPa 0,0 l/m 1,2 km/h (1 Bft) 0 min 7,4 km/h (2 Bft)
09.06.2010 07:32 21,6 C 16,5 C 1,1 UV-I 0,2 C 64 % 89 % 6 % 1007,4 hPa 0,0 l/m 0,8 km/h (0 Bft) 0 min 0,0 km/h (0 Bft)
09.06.2010 07:34 21,6 C 16,6 C 1,1 UV-I 0,1 C 64 % 89 % 3 % 1007,4 hPa 0,0 l/m 0,8 km/h (0 Bft) 0 min 0,0 km/h (0 Bft)
09.06.2010 07:36 21,6 C 16,7 C 1,1 UV-I 0,0 C 64 % 89 % 0 % 1007,4 hPa 0,0 l/m 0,8 km/h (0 Bft) 0 min 0,0 km/h (0 Bft)
09.06.2010 07:38 21,6 C 16,7 C 1,1 UV-I 0,2 C 64 % 89 % 6 % 1007,4 hPa 0,0 l/m 0,8 km/h (0 Bft) 0 min 3,2 km/h (1 Bft)
09.06.2010 07:42 21,6 C 16,8 C 1,7 UV-I 0,2 C 64 % 88 % 6 % 1007,4 hPa 0,0 l/m 1,6 km/h (1 Bft) 0 min 9,7 km/h (2 Bft)
09.06.2010 07:44 21,6 C 16,8 C 1,7 UV-I 0,3 C 64 % 88 % 9 % 1007,4 hPa 0,0 l/m 1,6 km/h (1 Bft) 0 min 0,0 km/h (0 Bft)
09.06.2010 07:46 21,6 C 16,9 C 1,6 UV-I 0,3 C 64 % 88 % 9 % 1007,4 hPa 0,0 l/m 2,0 km/h (1 Bft) 0 min 5,1 km/h (1 Bft)
09.06.2010 07:48 21,6 C 16,8 C 1,6 UV-I 0,4 C 64 % 88 % 11 % 1007,4 hPa 0,0 l/m 2,4 km/h (1 Bft) 0 min 4,2 km/h (1 Bft)
09.06.2010 07:50 21,6 C 16,8 C 1,6 UV-I 0,4 C 64 % 88 % 11 % 1007,4 hPa 0,0 l/m 2,4 km/h (1 Bft) 0 min 0,0 km/h (0 Bft)
09.06.2010 07:52 21,6 C 16,9 C 1,5 UV-I 0,4 C 64 % 88 % 11 % 1007,6 hPa 0,0 l/m 2,4 km/h (1 Bft) 0 min 4,2 km/h (1 Bft)
09.06.2010 07:54 21,6 C 16,9 C 1,5 UV-I 0,5 C 64 % 88 % 14 % 1007,6 hPa 0,0 l/m 2,4 km/h (1 Bft) 0 min 0,0 km/h (0 Bft)
09.06.2010 07:56 21,6 C 17,0 C 1,5 UV-I 0,4 C 64 % 88 % 11 % 1007,6 hPa 0,0 l/m 2,4 km/h (1 Bft) 0 min 0,0 km/h (0 Bft)
09.06.2010 07:58 21,6 C 17,1 C 1,5 UV-I 0,3 C 64 % 88 % 9 % 1007,6 hPa 0,0 l/m 2,0 km/h (1 Bft) 0 min 0,0 km/h (0 Bft)
09.06.2010 08:00 21,6 C 17,1 C 1,5 UV-I 0,3 C 64 % 88 % 9 % 1007,6 hPa 0,0 l/m 1,6 km/h (1 Bft) 0 min 0,0 km/h (0 Bft)
09.06.2010 08:02 21,6 C 17,1 C 1,3 UV-I 0,4 C 64 % 88 % 11 % 1007,6 hPa 0,0 l/m 1,2 km/h (1 Bft) 0 min 0,0 km/h (0 Bft)
09.06.2010 08:04 21,6 C 17,1 C 1,3 UV-I 0,4 C 64 % 87 % 11 % 1007,6 hPa 0,0 l/m 0,8 km/h (0 Bft) 0 min 6,4 km/h (2 Bft)
09.06.2010 08:06 21,6 C 17,2 C 1,3 UV-I 0,3 C 64 % 87 % 9 % 1007,6 hPa 0,0 l/m 1,2 km/h (1 Bft) 0 min 3,9 km/h (1 Bft)
09.06.2010 08:08 21,7 C 17,3 C 1,3 UV-I 0,2 C 64 % 87 % 6 % 1007,6 hPa 0,0 l/m 1,6 km/h (1 Bft) 0 min 4,8 km/h (1 Bft)
09.06.2010 08:10 21,6 C 17,3 C 1,3 UV-I 0,2 C 64 % 87 % 6 % 1007,6 hPa 0,0 l/m 1,6 km/h (1 Bft) 0 min 0,0 km/h (0 Bft)
09.06.2010 08:12 21,7 C 17,2 C 1,5 UV-I 0,3 C 64 % 87 % 9 % 1007,4 hPa 0,0 l/m 2,4 km/h (1 Bft) 0 min 0,0 km/h (0 Bft)
09.06.2010 08:14 21,7 C 17,2 C 1,5 UV-I 0,3 C 64 % 87 % 9 % 1007,4 hPa 0,0 l/m 2,8 km/h (1 Bft) 0 min 3,2 km/h (1 Bft)
09.06.2010 08:18 21,6 C 17,3 C 1,6 UV-I 0,3 C 64 % 87 % 9 % 1007,4 hPa 0,0 l/m 2,4 km/h (1 Bft) 0 min 4,5 km/h (1 Bft)
09.06.2010 08:20 21,7 C 17,3 C 1,6 UV-I 0,3 C 64 % 87 % 9 % 1007,4 hPa 0,0 l/m 2,0 km/h (1 Bft) 0 min 0,0 km/h (0 Bft)
09.06.2010 08:22 21,7 C 17,3 C 1,7 UV-I 0,4 C 64 % 87 % 11 % 1007,4 hPa 0,0 l/m 2,0 km/h (1 Bft) 0 min 4,8 km/h (1 Bft)
09.06.2010 08:26 21,7 C 17,5 C 1,7 UV-I 0,3 C 64 % 86 % 9 % 1007,4 hPa 0,0 l/m 2,0 km/h (1 Bft) 0 min 3,9 km/h (1 Bft)
09.06.2010 08:30 21,7 C 17,4 C 1,7 UV-I 0,5 C 64 % 86 % 14 % 1007,4 hPa 0,0 l/m 1,6 km/h (1 Bft) 0 min 4,2 km/h (1 Bft)
09.06.2010 08:34 21,7 C 17,6 C 2,0 UV-I 0,5 C 64 % 86 % 14 % 1007,8 hPa 0,0 l/m 0,8 km/h (0 Bft) 0 min 0,0 km/h (0 Bft)
09.06.2010 08:36 21,8 C 17,7 C 2,3 UV-I 0,5 C 64 % 87 % 14 % 1007,8 hPa 0,0 l/m 0,8 km/h (0 Bft) 0 min 0,0 km/h (0 Bft)
09.06.2010 08:38 21,8 C 17,6 C 2,3 UV-I 0,7 C 64 % 86 % 20 % 1007,8 hPa 0,0 l/m 0,8 km/h (0 Bft) 0 min 0,0 km/h (0 Bft)
09.06.2010 08:40 21,8 C 17,7 C 2,3 UV-I 0,7 C 64 % 87 % 20 % 1007,8 hPa 0,0 l/m 0,4 km/h (0 Bft) 0 min 0,0 km/h (0 Bft)
09.06.2010 08:42 21,8 C 17,7 C 2,1 UV-I 0,8 C 64 % 87 % 23 % 1007,8 hPa 0,0 l/m 0,4 km/h (0 Bft) 0 min 0,0 km/h (0 Bft)
09.06.2010 08:44 21,8 C 17,9 C 2,1 UV-I 0,7 C 64 % 86 % 20 % 1007,8 hPa 0,0 l/m 0,4 km/h (0 Bft) 0 min 0,0 km/h (0 Bft)
09.06.2010 08:46 21,8 C 17,9 C 1,9 UV-I 0,7 C 64 % 86 % 20 % 1007,8 hPa 0,0 l/m 0,4 km/h (0 Bft) 0 min 0,0 km/h (0 Bft)
09.06.2010 08:48 21,8 C 17,8 C 1,9 UV-I 0,8 C 64 % 86 % 23 % 1007,8 hPa 0,0 l/m 0,4 km/h (0 Bft) 0 min 3,2 km/h (1 Bft)
09.06.2010 08:52 21,8 C 18,0 C 2,1 UV-I 0,7 C 64 % 86 % 20 % 1006,7 hPa 0,0 l/m 0,4 km/h (0 Bft) 0 min 0,0 km/h (0 Bft)
09.06.2010 08:54 21,8 C 18,1 C 2,1 UV-I 0,7 C 64 % 85 % 20 % 1006,7 hPa 0,0 l/m 0,8 km/h (0 Bft) 0 min 0,0 km/h (0 Bft)
09.06.2010 08:56 21,9 C 18,0 C 2,7 UV-I 0,8 C 64 % 85 % 23 % 1006,7 hPa 0,0 l/m 0,4 km/h (0 Bft) 0 min 0,0 km/h (0 Bft)
09.06.2010 08:58 21,9 C 18,0 C 2,7 UV-I 0,9 C 64 % 85 % 26 % 1006,7 hPa 0,0 l/m 0,4 km/h (0 Bft) 0 min 0,0 km/h (0 Bft)
09.06.2010 09:00 21,9 C 18,1 C 2,7 UV-I 0,8 C 64 % 85 % 23 % 1006,7 hPa 0,0 l/m 0,4 km/h (0 Bft) 0 min 0,0 km/h (0 Bft)
09.06.2010 09:04 21,9 C 18,1 C 2,7 UV-I 0,9 C 64 % 85 % 26 % 1006,7 hPa 0,0 l/m 0,4 km/h (0 Bft) 0 min 0,0 km/h (0 Bft)
09.06.2010 09:06 21,9 C 18,3 C 2,0 UV-I 0,5 C 64 % 85 % 14 % 1006,7 hPa 0,0 l/m 0,0 km/h (0 Bft) 0 min 0,0 km/h (0 Bft)
09.06.2010 09:10 21,9 C 18,3 C 2,0 UV-I 0,3 C 64 % 85 % 9 % 1006,7 hPa 0,0 l/m 0,0 km/h (0 Bft) 0 min 0,0 km/h (0 Bft)
09.06.2010 09:12 21,9 C 18,2 C 1,7 UV-I 0,4 C 64 % 85 % 11 % 1007,6 hPa 0,0 l/m 0,0 km/h (0 Bft) 0 min 0,0 km/h (0 Bft)
09.06.2010 09:18 21,9 C 18,3 C 1,8 UV-I 0,3 C 64 % 85 % 9 % 1007,6 hPa 0,0 l/m 0,8 km/h (0 Bft) 0 min 0,0 km/h (0 Bft)
09.06.2010 09:20 22,0 C 18,2 C 1,8 UV-I 0,3 C 64 % 85 % 9 % 1007,6 hPa 0,0 l/m 0,8 km/h (0 Bft) 0 min 5,1 km/h (1 Bft)
09.06.2010 09:24 22,0 C 18,3 C 1,7 UV-I 0,2 C 64 % 84 % 6 % 1007,6 hPa 0,0 l/m 1,2 km/h (1 Bft) 0 min 0,0 km/h (0 Bft)
09.06.2010 09:26 22,0 C 18,3 C 1,3 UV-I 0,1 C 64 % 84 % 3 % 1007,6 hPa 0,0 l/m 1,2 km/h (1 Bft) 0 min 0,0 km/h (0 Bft)
09.06.2010 09:32 22,0 C 18,3 C 1,0 UV-I 0,0 C 64 % 84 % 0 % 1007,7 hPa 0,0 l/m 0,4 km/h (0 Bft) 0 min 0,0 km/h (0 Bft)
09.06.2010 09:34 22,0 C 18,3 C 1,0 UV-I 0,0 C 64 % 84 % 0 % 1007,7 hPa 0,0 l/m 0,4 km/h (0 Bft) 0 min 0,0 km/h (0 Bft)
09.06.2010 09:36 22,0 C 18,3 C 0,8 UV-I 0,0 C 63 % 84 % 0 % 1007,7 hPa 0,0 l/m 0,4 km/h (0 Bft) 0 min 0,0 km/h (0 Bft)
09.06.2010 09:38 22,0 C 18,2 C 0,8 UV-I 0,0 C 63 % 84 % 0 % 1007,7 hPa 0,0 l/m 0,8 km/h (0 Bft) 0 min 4,2 km/h (1 Bft)
09.06.2010 09:40 22,0 C 18,3 C 0,8 UV-I 0,0 C 64 % 84 % 0 % 1007,7 hPa 0,0 l/m 0,4 km/h (0 Bft) 0 min 0,0 km/h (0 Bft)
09.06.2010 09:44 22,0 C 18,1 C 0,8 UV-I 0,0 C 64 % 84 % 0 % 1007,7 hPa 0,0 l/m 0,4 km/h (0 Bft) 0 min 0,0 km/h (0 Bft)
09.06.2010 09:46 22,0 C 18,1 C 0,5 UV-I 0,0 C 64 % 84 % 0 % 1007,7 hPa 0,0 l/m 0,4 km/h (0 Bft) 0 min 0,0 km/h (0 Bft)
09.06.2010 09:48 22,0 C 18,1 C 0,5 UV-I 0,0 C 64 % 84 % 0 % 1007,7 hPa 0,0 l/m 0,8 km/h (0 Bft) 0 min 3,5 km/h (1 Bft)
09.06.2010 09:50 22,0 C 18,1 C 0,5 UV-I 0,0 C 64 % 84 % 0 % 1007,7 hPa 0,0 l/m 0,8 km/h (0 Bft) 0 min 0,0 km/h (0 Bft)
09.06.2010 09:56 22,0 C 18,1 C 0,6 UV-I 0,0 C 64 % 85 % 0 % 1007,5 hPa 0,0 l/m 0,8 km/h (0 Bft) 0 min 3,2 km/h (1 Bft)
09.06.2010 10:02 22,0 C 18,1 C 0,6 UV-I 0,0 C 64 % 85 % 0 % 1007,5 hPa 0,0 l/m 0,0 km/h (0 Bft) 0 min 0,0 km/h (0 Bft)
09.06.2010 10:04 22,0 C 18,0 C 0,6 UV-I 0,0 C 64 % 85 % 0 % 1007,5 hPa 0,0 l/m 0,0 km/h (0 Bft) 0 min 0,0 km/h (0 Bft)
09.06.2010 10:06 22,0 C 18,1 C 0,6 UV-I 0,0 C 64 % 85 % 0 % 1007,5 hPa 0,0 l/m 0,4 km/h (0 Bft) 0 min 0,0 km/h (0 Bft)
09.06.2010 10:08 22,0 C 18,0 C 0,6 UV-I 0,0 C 64 % 85 % 0 % 1007,5 hPa 0,0 l/m 0,4 km/h (0 Bft) 0 min 0,0 km/h (0 Bft)
09.06.2010 10:14 22,0 C 17,9 C 0,9 UV-I 0,0 C 64 % 85 % 0 % 1007,2 hPa 0,0 l/m 0,4 km/h (0 Bft) 0 min 0,0 km/h (0 Bft)
09.06.2010 10:16 22,0 C 17,9 C 1,2 UV-I 0,0 C 64 % 86 % 0 % 1007,2 hPa 0,0 l/m 0,0 km/h (0 Bft) 0 min 0,0 km/h (0 Bft)
09.06.2010 10:20 21,9 C 17,8 C 1,2 UV-I 0,0 C 64 % 86 % 0 % 1007,2 hPa 0,0 l/m 0,0 km/h (0 Bft) 0 min 0,0 km/h (0 Bft)
09.06.2010 10:24 21,9 C 17,9 C 1,2 UV-I 0,0 C 64 % 86 % 0 % 1007,2 hPa 0,0 l/m 0,0 km/h (0 Bft) 0 min 0,0 km/h (0 Bft)
09.06.2010 10:26 22,0 C 17,9 C 1,0 UV-I 0,0 C 64 % 86 % 0 % 1007,2 hPa 0,0 l/m 0,0 km/h (0 Bft) 0 min 0,0 km/h (0 Bft)
09.06.2010 10:28 21,9 C 17,9 C 1,0 UV-I 0,0 C 64 % 86 % 0 % 1007,2 hPa 0,0 l/m 0,0 km/h (0 Bft) 0 min 0,0 km/h (0 Bft)
09.06.2010 10:30 22,0 C 17,9 C 1,0 UV-I 0,0 C 64 % 86 % 0 % 1007,2 hPa 0,0 l/m 0,0 km/h (0 Bft) 0 min 0,0 km/h (0 Bft)
09.06.2010 10:34 21,9 C 17,9 C 0,8 UV-I 0,0 C 64 % 86 % 0 % 1007,6 hPa 0,0 l/m 0,0 km/h (0 Bft) 0 min 0,0 km/h (0 Bft)
09.06.2010 10:36 21,9 C 17,9 C 0,7 UV-I 0,0 C 64 % 86 % 0 % 1007,6 hPa 0,0 l/m 0,0 km/h (0 Bft) 0 min 0,0 km/h (0 Bft)
09.06.2010 10:38 21,9 C 18,0 C 0,7 UV-I 0,0 C 64 % 86 % 0 % 1007,6 hPa 0,0 l/m 0,0 km/h (0 Bft) 0 min 0,0 km/h (0 Bft)
09.06.2010 10:40 21,9 C 18,0 C 0,7 UV-I 0,0 C 64 % 86 % 0 % 1007,6 hPa 0,0 l/m 0,0 km/h (0 Bft) 0 min 0,0 km/h (0 Bft)
09.06.2010 10:42 21,9 C 17,9 C 0,7 UV-I 0,0 C 64 % 86 % 0 % 1007,6 hPa 0,0 l/m 0,0 km/h (0 Bft) 0 min 0,0 km/h (0 Bft)
09.06.2010 10:44 21,9 C 17,9 C 0,7 UV-I 0,0 C 64 % 86 % 0 % 1007,6 hPa 0,0 l/m 0,4 km/h (0 Bft) 0 min 0,0 km/h (0 Bft)
09.06.2010 10:46 21,9 C 17,9 C 0,9 UV-I 0,0 C 64 % 86 % 0 % 1007,6 hPa 0,0 l/m 0,4 km/h (0 Bft) 0 min 0,0 km/h (0 Bft)
09.06.2010 10:48 21,9 C 17,9 C 0,9 UV-I 0,0 C 64 % 87 % 0 % 1007,6 hPa 0,0 l/m 0,4 km/h (0 Bft) 0 min 0,0 km/h (0 Bft)
09.06.2010 10:50 21,9 C 17,8 C 0,9 UV-I 0,0 C 64 % 87 % 0 % 1007,6 hPa 0,0 l/m 0,4 km/h (0 Bft) 0 min 0,0 km/h (0 Bft)
09.06.2010 10:52 21,9 C 17,9 C 1,0 UV-I 0,0 C 64 % 87 % 0 % 1008,0 hPa 0,2 l/m 0,4 km/h (0 Bft) 0 min 0,0 km/h (0 Bft)
09.06.2010 10:54 21,9 C 17,9 C 1,0 UV-I 0,0 C 64 % 87 % 0 % 1008,0 hPa 0,1 l/m 0,4 km/h (0 Bft) 0 min 0,0 km/h (0 Bft)
09.06.2010 10:56 21,9 C 17,8 C 1,5 UV-I 0,0 C 65 % 87 % 0 % 1008,0 hPa 0,0 l/m 0,4 km/h (0 Bft) 0 min 0,0 km/h (0 Bft)
09.06.2010 10:58 21,9 C 17,8 C 1,5 UV-I 0,0 C 65 % 87 % 0 % 1008,0 hPa 0,1 l/m 0,4 km/h (0 Bft) 0 min 0,0 km/h (0 Bft)
09.06.2010 11:00 22,0 C 17,9 C 1,5 UV-I 0,0 C 65 % 87 % 0 % 1008,0 hPa 0,1 l/m 0,4 km/h (0 Bft) 0 min 0,0 km/h (0 Bft)
09.06.2010 11:10 22,0 C 17,6 C 1,5 UV-I 0,0 C 65 % 88 % 0 % 1008,0 hPa 0,3 l/m 1,2 km/h (1 Bft) 0 min 5,5 km/h (1 Bft)
09.06.2010 11:20 22,0 C 17,5 C 1,5 UV-I 0,0 C 66 % 89 % 0 % 1008,0 hPa 0,6 l/m 0,8 km/h (0 Bft) 0 min 0,0 km/h (0 Bft)
09.06.2010 11:26 22,0 C 17,5 C 1,2 UV-I 0,0 C 66 % 89 % 0 % 1008,0 hPa 0,6 l/m 0,4 km/h (0 Bft) 0 min 0,0 km/h (0 Bft)
09.06.2010 11:28 22,0 C 17,3 C 1,2 UV-I 0,0 C 66 % 89 % 0 % 1008,0 hPa 0,6 l/m 1,2 km/h (1 Bft) 0 min 6,1 km/h (2 Bft)
09.06.2010 11:32 22,0 C 17,4 C 1,0 UV-I 0,0 C 66 % 90 % 0 % 1007,7 hPa 0,0 l/m 1,2 km/h (1 Bft) 0 min 0,0 km/h (0 Bft)
09.06.2010 11:34 21,9 C 17,3 C 1,0 UV-I 0,0 C 66 % 90 % 0 % 1007,7 hPa 0,2 l/m 1,2 km/h (1 Bft) 0 min 0,0 km/h (0 Bft)
09.06.2010 11:36 22,0 C 17,3 C 0,8 UV-I 0,0 C 66 % 90 % 0 % 1007,7 hPa 0,0 l/m 1,2 km/h (1 Bft) 0 min 0,0 km/h (0 Bft)
09.06.2010 11:38 22,0 C 17,2 C 0,8 UV-I 0,0 C 66 % 90 % 0 % 1007,7 hPa 0,0 l/m 1,6 km/h (1 Bft) 0 min 3,2 km/h (1 Bft)
09.06.2010 11:40 22,0 C 17,2 C 0,8 UV-I 0,0 C 66 % 90 % 0 % 1007,7 hPa 0,1 l/m 1,2 km/h (1 Bft) 0 min 0,0 km/h (0 Bft)
09.06.2010 11:42 21,9 C 17,1 C 0,7 UV-I 0,0 C 66 % 90 % 0 % 1007,7 hPa 0,1 l/m 0,8 km/h (0 Bft) 0 min 0,0 km/h (0 Bft)
09.06.2010 11:44 21,9 C 17,1 C 0,7 UV-I 0,0 C 66 % 90 % 0 % 1007,7 hPa 0,0 l/m 0,8 km/h (0 Bft) 0 min 0,0 km/h (0 Bft)
09.06.2010 11:46 21,9 C 17,1 C 0,4 UV-I 0,0 C 66 % 90 % 0 % 1007,7 hPa 0,1 l/m 0,4 km/h (0 Bft) 0 min 0,0 km/h (0 Bft)
09.06.2010 11:48 21,9 C 17,0 C 0,4 UV-I 0,0 C 66 % 90 % 0 % 1007,7 hPa 0,0 l/m 0,4 km/h (0 Bft) 0 min 0,0 km/h (0 Bft)
09.06.2010 11:50 21,9 C 16,9 C 0,4 UV-I 0,0 C 66 % 90 % 0 % 1007,7 hPa 0,1 l/m 0,0 km/h (0 Bft) 0 min 0,0 km/h (0 Bft)
09.06.2010 11:52 21,9 C 16,9 C 0,6 UV-I 0,0 C 66 % 90 % 0 % 1007,9 hPa 0,1 l/m 0,0 km/h (0 Bft) 0 min 0,0 km/h (0 Bft)
09.06.2010 11:54 21,9 C 16,9 C 0,6 UV-I 0,0 C 66 % 90 % 0 % 1007,9 hPa 0,0 l/m 0,0 km/h (0 Bft) 0 min 0,0 km/h (0 Bft)
09.06.2010 11:56 21,9 C 16,9 C 0,9 UV-I 0,0 C 66 % 91 % 0 % 1007,9 hPa 0,1 l/m 0,0 km/h (0 Bft) 0 min 0,0 km/h (0 Bft)
09.06.2010 11:58 21,9 C 16,8 C 0,9 UV-I 0,0 C 66 % 91 % 0 % 1007,9 hPa 0,1 l/m 0,0 km/h (0 Bft) 0 min 3,2 km/h (1 Bft)
09.06.2010 12:00 21,9 C 16,9 C 0,9 UV-I 0,0 C 67 % 91 % 0 % 1007,9 hPa 0,0 l/m 0,0 km/h (0 Bft) 0 min 0,0 km/h (0 Bft)
09.06.2010 12:02 21,9 C 16,8 C 0,6 UV-I 0,0 C 67 % 91 % 0 % 1007,9 hPa 0,2 l/m 0,0 km/h (0 Bft) 0 min 0,0 km/h (0 Bft)
09.06.2010 12:04 21,9 C 16,8 C 0,6 UV-I 0,0 C 67 % 91 % 0 % 1007,9 hPa 0,0 l/m 0,0 km/h (0 Bft) 0 min 0,0 km/h (0 Bft)
09.06.2010 12:06 21,9 C 16,8 C 0,5 UV-I 0,0 C 67 % 91 % 0 % 1007,9 hPa 0,0 l/m 0,4 km/h (0 Bft) 0 min 4,2 km/h (1 Bft)
09.06.2010 12:08 21,9 C 16,8 C 0,5 UV-I 0,0 C 67 % 91 % 0 % 1007,9 hPa 0,3 l/m 0,4 km/h (0 Bft) 0 min 0,0 km/h (0 Bft)
09.06.2010 12:10 21,8 C 16,7 C 0,5 UV-I 0,0 C 67 % 91 % 0 % 1007,9 hPa 0,2 l/m 0,8 km/h (0 Bft) 0 min 3,9 km/h (1 Bft)
09.06.2010 12:12 21,8 C 16,7 C 0,9 UV-I 0,0 C 67 % 91 % 0 % 1007,9 hPa 0,0 l/m 0,8 km/h (0 Bft) 0 min 3,9 km/h (1 Bft)
09.06.2010 12:14 21,8 C 16,7 C 0,9 UV-I 0,0 C 67 % 91 % 0 % 1007,9 hPa 0,0 l/m 1,2 km/h (1 Bft) 0 min 3,2 km/h (1 Bft)
09.06.2010 12:16 21,8 C 16,6 C 0,6 UV-I 0,0 C 67 % 91 % 0 % 1007,9 hPa 0,0 l/m 0,8 km/h (0 Bft) 0 min 0,0 km/h (0 Bft)
09.06.2010 12:18 21,8 C 16,7 C 0,6 UV-I 0,0 C 67 % 92 % 0 % 1007,9 hPa 0,0 l/m 0,8 km/h (0 Bft) 0 min 0,0 km/h (0 Bft)
09.06.2010 12:20 21,8 C 16,6 C 0,6 UV-I 0,0 C 67 % 91 % 0 % 1007,9 hPa 0,0 l/m 1,2 km/h (1 Bft) 0 min 5,5 km/h (1 Bft)
09.06.2010 12:22 21,8 C 16,5 C 0,6 UV-I 0,0 C 67 % 91 % 0 % 1007,9 hPa 0,0 l/m 1,6 km/h (1 Bft) 0 min 4,8 km/h (1 Bft)
09.06.2010 12:24 21,8 C 16,5 C 0,6 UV-I 0,0 C 67 % 91 % 0 % 1007,9 hPa 0,0 l/m 2,0 km/h (1 Bft) 0 min 3,2 km/h (1 Bft)
09.06.2010 12:26 21,8 C 16,5 C 0,5 UV-I 0,0 C 67 % 92 % 0 % 1007,9 hPa 0,0 l/m 2,0 km/h (1 Bft) 0 min 0,0 km/h (0 Bft)
09.06.2010 12:28 21,8 C 16,4 C 0,5 UV-I 0,0 C 67 % 92 % 0 % 1007,9 hPa 0,0 l/m 2,0 km/h (1 Bft) 0 min 0,0 km/h (0 Bft)
09.06.2010 12:30 21,8 C 16,5 C 0,5 UV-I 0,0 C 67 % 92 % 0 % 1007,9 hPa 0,0 l/m 2,0 km/h (1 Bft) 0 min 0,0 km/h (0 Bft)
09.06.2010 12:32 21,8 C 16,5 C 0,6 UV-I 0,0 C 67 % 92 % 0 % 1007,7 hPa 0,0 l/m 2,0 km/h (1 Bft) 0 min 4,2 km/h (1 Bft)
09.06.2010 12:34 21,8 C 16,4 C 0,6 UV-I 0,0 C 67 % 92 % 0 % 1007,7 hPa 0,0 l/m 1,6 km/h (1 Bft) 0 min 5,1 km/h (1 Bft)
09.06.2010 12:36 21,8 C 16,4 C 0,5 UV-I 0,0 C 67 % 92 % 0 % 1007,7 hPa 0,0 l/m 1,6 km/h (1 Bft) 0 min 0,0 km/h (0 Bft)
09.06.2010 12:38 21,8 C 16,4 C 0,5 UV-I 0,0 C 67 % 92 % 0 % 1007,7 hPa 0,0 l/m 1,2 km/h (1 Bft) 0 min 0,0 km/h (0 Bft)
09.06.2010 12:40 21,8 C 16,4 C 0,5 UV-I 0,0 C 67 % 92 % 0 % 1007,7 hPa 0,0 l/m 1,2 km/h (1 Bft) 0 min 0,0 km/h (0 Bft)
09.06.2010 12:42 21,8 C 16,4 C 0,7 UV-I 0,0 C 67 % 92 % 0 % 1007,7 hPa 0,0 l/m 0,8 km/h (0 Bft) 0 min 0,0 km/h (0 Bft)
09.06.2010 12:44 21,8 C 16,4 C 0,7 UV-I 0,0 C 67 % 92 % 0 % 1007,7 hPa 0,0 l/m 0,4 km/h (0 Bft) 0 min 0,0 km/h (0 Bft)
09.06.2010 12:46 21,8 C 16,5 C 0,4 UV-I 0,0 C 67 % 93 % 0 % 1007,7 hPa 0,0 l/m 0,4 km/h (0 Bft) 0 min 4,2 km/h (1 Bft)
09.06.2010 12:48 21,8 C 16,5 C 0,4 UV-I 0,0 C 67 % 93 % 0 % 1007,7 hPa 0,0 l/m 0,4 km/h (0 Bft) 0 min 0,0 km/h (0 Bft)
09.06.2010 12:52 21,8 C 16,5 C 1,2 UV-I 0,0 C 67 % 93 % 0 % 1007,8 hPa 0,0 l/m 0,4 km/h (0 Bft) 0 min 0,0 km/h (0 Bft)
09.06.2010 12:54 21,8 C 16,5 C 1,2 UV-I 0,0 C 67 % 93 % 0 % 1007,8 hPa 0,0 l/m 0,4 km/h (0 Bft) 0 min 0,0 km/h (0 Bft)
09.06.2010 12:56 21,8 C 16,7 C 1,1 UV-I 0,0 C 67 % 93 % 0 % 1007,8 hPa 0,0 l/m 0,8 km/h (0 Bft) 0 min 0,0 km/h (0 Bft)
09.06.2010 12:58 21,8 C 16,6 C 1,1 UV-I 0,0 C 67 % 93 % 0 % 1007,8 hPa 0,0 l/m 1,2 km/h (1 Bft) 0 min 7,7 km/h (2 Bft)
09.06.2010 13:00 21,8 C 16,7 C 1,1 UV-I 0,0 C 67 % 93 % 0 % 1007,8 hPa 0,0 l/m 1,6 km/h (1 Bft) 0 min 7,4 km/h (2 Bft)
09.06.2010 13:02 21,8 C 16,7 C 1,2 UV-I 0,0 C 67 % 93 % 0 % 1007,8 hPa 0,0 l/m 1,6 km/h (1 Bft) 0 min 0,0 km/h (0 Bft)
09.06.2010 13:04 21,8 C 16,5 C 1,2 UV-I 0,0 C 67 % 93 % 0 % 1007,8 hPa 0,0 l/m 2,0 km/h (1 Bft) 0 min 3,2 km/h (1 Bft)
09.06.2010 13:06 21,8 C 16,6 C 0,9 UV-I 0,0 C 67 % 93 % 0 % 1007,8 hPa 0,0 l/m 2,0 km/h (1 Bft) 0 min 0,0 km/h (0 Bft)
09.06.2010 13:08 21,8 C 16,5 C 0,9 UV-I 0,0 C 67 % 93 % 0 % 1007,8 hPa 0,0 l/m 2,0 km/h (1 Bft) 0 min 3,9 km/h (1 Bft)
09.06.2010 13:10 21,8 C 16,5 C 0,9 UV-I 0,0 C 67 % 93 % 0 % 1007,8 hPa 0,0 l/m 2,4 km/h (1 Bft) 0 min 6,4 km/h (2 Bft)
09.06.2010 13:12 21,8 C 16,5 C 1,2 UV-I 0,0 C 67 % 93 % 0 % 1007,9 hPa 0,0 l/m 2,0 km/h (1 Bft) 0 min 3,5 km/h (1 Bft)
09.06.2010 13:14 21,7 C 16,5 C 1,2 UV-I 0,0 C 67 % 93 % 0 % 1007,9 hPa 0,0 l/m 2,0 km/h (1 Bft) 0 min 0,0 km/h (0 Bft)
09.06.2010 13:16 21,7 C 16,5 C 1,3 UV-I 0,0 C 67 % 93 % 0 % 1007,9 hPa 0,0 l/m 1,6 km/h (1 Bft) 0 min 0,0 km/h (0 Bft)
09.06.2010 13:18 21,7 C 16,6 C 1,3 UV-I 0,0 C 67 % 93 % 0 % 1007,9 hPa 0,1 l/m 2,4 km/h (1 Bft) 0 min 3,5 km/h (1 Bft)
09.06.2010 13:20 21,7 C 16,6 C 1,3 UV-I 0,0 C 67 % 93 % 0 % 1007,9 hPa 0,0 l/m 2,8 km/h (1 Bft) 0 min 3,9 km/h (1 Bft)
09.06.2010 13:22 21,7 C 16,5 C 1,3 UV-I 0,0 C 67 % 93 % 0 % 1007,9 hPa 0,0 l/m 2,0 km/h (1 Bft) 0 min 0,0 km/h (0 Bft)
09.06.2010 13:24 21,7 C 16,6 C 1,3 UV-I 0,0 C 67 % 93 % 0 % 1007,9 hPa 0,1 l/m 1,6 km/h (1 Bft) 0 min 0,0 km/h (0 Bft)
09.06.2010 13:26 21,7 C 16,5 C 1,2 UV-I 0,0 C 67 % 93 % 0 % 1007,9 hPa 0,2 l/m 2,0 km/h (1 Bft) 0 min 4,2 km/h (1 Bft)
09.06.2010 13:28 21,7 C 16,5 C 1,2 UV-I 0,0 C 67 % 93 % 0 % 1007,9 hPa 0,0 l/m 1,6 km/h (1 Bft) 0 min 0,0 km/h (0 Bft)
09.06.2010 13:30 21,7 C 16,5 C 1,2 UV-I 0,0 C 67 % 93 % 0 % 1007,9 hPa 0,0 l/m 0,8 km/h (0 Bft) 0 min 3,5 km/h (1 Bft)
09.06.2010 13:32 21,8 C 16,5 C 1,0 UV-I 0,0 C 67 % 93 % 0 % 1008,4 hPa 0,0 l/m 0,4 km/h (0 Bft) 0 min 3,9 km/h (1 Bft)
09.06.2010 13:34 21,8 C 16,5 C 1,0 UV-I 0,0 C 67 % 93 % 0 % 1008,4 hPa 0,0 l/m 0,4 km/h (0 Bft) 0 min 0,0 km/h (0 Bft)
09.06.2010 13:38 21,7 C 16,5 C 1,1 UV-I 0,0 C 67 % 93 % 0 % 1008,4 hPa 0,0 l/m 0,0 km/h (0 Bft) 0 min 0,0 km/h (0 Bft)
09.06.2010 13:40 21,7 C 16,5 C 1,1 UV-I 0,0 C 67 % 93 % 0 % 1008,4 hPa 0,0 l/m 0,0 km/h (0 Bft) 0 min 0,0 km/h (0 Bft)
09.06.2010 13:42 21,7 C 16,5 C 1,1 UV-I 0,0 C 66 % 93 % 0 % 1008,4 hPa 0,1 l/m 0,0 km/h (0 Bft) 0 min 0,0 km/h (0 Bft)
09.06.2010 13:44 21,7 C 16,5 C 1,1 UV-I 0,0 C 66 % 93 % 0 % 1008,4 hPa 0,0 l/m 0,0 km/h (0 Bft) 0 min 3,2 km/h (1 Bft)
09.06.2010 13:46 21,7 C 16,5 C 1,6 UV-I 0,0 C 66 % 93 % 0 % 1008,4 hPa 0,0 l/m 0,8 km/h (0 Bft) 0 min 5,8 km/h (2 Bft)
09.06.2010 13:48 21,7 C 16,4 C 1,6 UV-I 0,0 C 66 % 93 % 0 % 1008,4 hPa 0,0 l/m 1,2 km/h (1 Bft) 0 min 0,0 km/h (0 Bft)
09.06.2010 13:50 21,7 C 16,5 C 1,6 UV-I 0,0 C 66 % 93 % 0 % 1008,4 hPa 0,0 l/m 1,6 km/h (1 Bft) 0 min 8,7 km/h (2 Bft)
09.06.2010 13:52 21,7 C 16,4 C 1,8 UV-I 0,0 C 66 % 93 % 0 % 1008,3 hPa 0,0 l/m 2,4 km/h (1 Bft) 0 min 4,2 km/h (1 Bft)
09.06.2010 13:54 21,7 C 16,4 C 1,8 UV-I 0,0 C 67 % 93 % 0 % 1008,3 hPa 0,0 l/m 3,2 km/h (1 Bft) 0 min 4,2 km/h (1 Bft)
09.06.2010 13:56 21,7 C 16,4 C 1,8 UV-I 0,0 C 66 % 93 % 0 % 1008,3 hPa 0,0 l/m 3,2 km/h (1 Bft) 0 min 4,5 km/h (1 Bft)
09.06.2010 13:58 21,8 C 16,4 C 1,8 UV-I 0,0 C 66 % 93 % 0 % 1008,3 hPa 0,0 l/m 3,2 km/h (1 Bft) 0 min 7,4 km/h (2 Bft)
09.06.2010 14:00 21,8 C 16,5 C 1,8 UV-I 0,0 C 66 % 93 % 0 % 1008,3 hPa 0,0 l/m 4,4 km/h (1 Bft) 0 min 9,0 km/h (2 Bft)
09.06.2010 14:02 21,8 C 16,4 C 2,7 UV-I 0,0 C 66 % 93 % 0 % 1008,3 hPa 0,0 l/m 4,0 km/h (1 Bft) 0 min 0,0 km/h (0 Bft)
09.06.2010 14:04 21,8 C 16,5 C 2,7 UV-I 0,1 C 66 % 93 % 3 % 1008,3 hPa 0,0 l/m 3,6 km/h (1 Bft) 0 min 4,2 km/h (1 Bft)
09.06.2010 14:06 21,8 C 16,6 C 3,8 UV-I 0,2 C 66 % 93 % 6 % 1008,3 hPa 0,0 l/m 3,6 km/h (1 Bft) 0 min 0,0 km/h (0 Bft)
09.06.2010 14:12 21,8 C 16,6 C 4,4 UV-I 0,8 C 66 % 93 % 23 % 1008,2 hPa 0,0 l/m 4,0 km/h (1 Bft) 0 min 10,0 km/h (2 Bft)
09.06.2010 14:14 21,8 C 16,7 C 4,4 UV-I 1,0 C 66 % 93 % 29 % 1008,2 hPa 0,0 l/m 4,0 km/h (1 Bft) 0 min 6,4 km/h (2 Bft)
09.06.2010 14:16 21,8 C 16,7 C 4,6 UV-I 1,3 C 66 % 93 % 37 % 1008,2 hPa 0,0 l/m 4,0 km/h (1 Bft) 0 min 5,1 km/h (1 Bft)
09.06.2010 14:18 21,8 C 16,8 C 4,6 UV-I 1,4 C 66 % 93 % 40 % 1008,2 hPa 0,0 l/m 4,8 km/h (1 Bft) 0 min 12,2 km/h (2 Bft)
09.06.2010 14:20 21,8 C 16,9 C 4,6 UV-I 1,4 C 66 % 93 % 40 % 1008,2 hPa 0,0 l/m 5,6 km/h (1 Bft) 0 min 12,2 km/h (2 Bft)
09.06.2010 14:22 21,8 C 16,8 C 3,9 UV-I 1,5 C 66 % 93 % 43 % 1008,2 hPa 0,0 l/m 5,2 km/h (1 Bft) 0 min 7,1 km/h (2 Bft)
09.06.2010 14:24 21,8 C 16,9 C 3,9 UV-I 1,5 C 66 % 92 % 43 % 1008,2 hPa 0,0 l/m 6,4 km/h (2 Bft) 0 min 7,4 km/h (2 Bft)
09.06.2010 14:26 21,9 C 16,9 C 3,9 UV-I 1,5 C 66 % 92 % 43 % 1008,2 hPa 0,0 l/m 6,0 km/h (2 Bft) 0 min 4,2 km/h (1 Bft)
09.06.2010 14:30 21,9 C 17,1 C 3,9 UV-I 1,4 C 66 % 92 % 40 % 1008,2 hPa 0,0 l/m 6,0 km/h (2 Bft) 0 min 7,7 km/h (2 Bft)
09.06.2010 14:32 21,9 C 17,0 C 2,8 UV-I 1,5 C 66 % 92 % 43 % 1008,4 hPa 0,0 l/m 5,2 km/h (1 Bft) 0 min 0,0 km/h (0 Bft)
09.06.2010 14:36 21,9 C 17,1 C 3,4 UV-I 1,4 C 66 % 92 % 40 % 1008,4 hPa 0,0 l/m 4,8 km/h (1 Bft) 0 min 10,0 km/h (2 Bft)
09.06.2010 14:38 21,9 C 17,2 C 3,4 UV-I 1,4 C 66 % 92 % 40 % 1008,4 hPa 0,0 l/m 5,2 km/h (1 Bft) 0 min 4,5 km/h (1 Bft)
09.06.2010 14:40 22,0 C 17,2 C 3,4 UV-I 1,6 C 66 % 92 % 46 % 1008,4 hPa 0,0 l/m 4,4 km/h (1 Bft) 0 min 0,0 km/h (0 Bft)
09.06.2010 14:42 22,0 C 17,3 C 6,5 UV-I 2,0 C 66 % 92 % 57 % 1008,4 hPa 0,0 l/m 3,2 km/h (1 Bft) 0 min 0,0 km/h (0 Bft)
09.06.2010 14:44 22,0 C 17,5 C 6,5 UV-I 2,6 C 66 % 92 % 74 % 1008,4 hPa 0,0 l/m 3,2 km/h (1 Bft) 0 min 7,4 km/h (2 Bft)
09.06.2010 14:46 22,1 C 17,6 C 10,1 UV-I 3,4 C 66 % 92 % 97 % 1008,4 hPa 0,0 l/m 3,6 km/h (1 Bft) 2 min 5,1 km/h (1 Bft)
09.06.2010 14:48 22,1 C 17,9 C 10,1 UV-I 3,8 C 66 % 93 % 100 % 1008,4 hPa 0,0 l/m 4,0 km/h (1 Bft) 2 min 10,0 km/h (2 Bft)
09.06.2010 14:50 22,2 C 18,1 C 10,1 UV-I 4,1 C 66 % 92 % 100 % 1008,4 hPa 0,0 l/m 4,0 km/h (1 Bft) 2 min 7,1 km/h (2 Bft)
09.06.2010 14:52 22,2 C 18,1 C 9,9 UV-I 4,5 C 66 % 91 % 100 % 1008,8 hPa 0,0 l/m 5,6 km/h (1 Bft) 2 min 6,8 km/h (2 Bft)
09.06.2010 14:54 22,2 C 18,1 C 9,9 UV-I 4,7 C 66 % 92 % 100 % 1008,8 hPa 0,0 l/m 5,2 km/h (1 Bft) 2 min 0,0 km/h (0 Bft)
09.06.2010 14:56 22,3 C 18,3 C 8,1 UV-I 4,6 C 66 % 91 % 100 % 1008,8 hPa 0,0 l/m 4,4 km/h (1 Bft) 2 min 8,4 km/h (2 Bft)
09.06.2010 14:58 22,4 C 18,3 C 8,1 UV-I 4,6 C 66 % 91 % 100 % 1008,8 hPa 0,0 l/m 4,0 km/h (1 Bft) 2 min 0,0 km/h (0 Bft)
09.06.2010 15:00 22,4 C 18,3 C 8,1 UV-I 4,6 C 66 % 91 % 100 % 1008,8 hPa 0,0 l/m 3,2 km/h (1 Bft) 2 min 6,4 km/h (2 Bft)
09.06.2010 15:04 22,4 C 18,4 C 7,5 UV-I 4,2 C 65 % 89 % 100 % 1008,8 hPa 0,0 l/m 4,0 km/h (1 Bft) 2 min 7,4 km/h (2 Bft)
09.06.2010 15:06 22,5 C 18,3 C 5,9 UV-I 4,0 C 65 % 89 % 100 % 1008,8 hPa 0,0 l/m 6,0 km/h (2 Bft) 2 min 8,0 km/h (2 Bft)
09.06.2010 15:08 22,5 C 18,3 C 5,9 UV-I 3,7 C 65 % 88 % 100 % 1008,8 hPa 0,0 l/m 6,0 km/h (2 Bft) 2 min 3,2 km/h (1 Bft)
09.06.2010 15:10 22,5 C 18,3 C 5,9 UV-I 3,4 C 65 % 89 % 97 % 1008,8 hPa 0,0 l/m 6,0 km/h (2 Bft) 2 min 0,0 km/h (0 Bft)
09.06.2010 15:12 22,5 C 18,4 C 4,9 UV-I 3,1 C 65 % 89 % 89 % 1009,1 hPa 0,0 l/m 4,4 km/h (1 Bft) 2 min 0,0 km/h (0 Bft)
09.06.2010 15:20 22,6 C 18,4 C 5,1 UV-I 3,0 C 64 % 89 % 86 % 1009,1 hPa 0,0 l/m 1,2 km/h (1 Bft) 2 min 5,1 km/h (1 Bft)
09.06.2010 15:22 22,6 C 18,5 C 4,8 UV-I 2,9 C 64 % 88 % 83 % 1009,1 hPa 0,0 l/m 1,6 km/h (1 Bft) 2 min 4,8 km/h (1 Bft)
09.06.2010 15:28 22,7 C 18,5 C 4,6 UV-I 2,6 C 64 % 88 % 74 % 1009,1 hPa 0,0 l/m 2,4 km/h (1 Bft) 0 min 8,4 km/h (2 Bft)
09.06.2010 15:30 22,7 C 18,5 C 4,6 UV-I 2,6 C 64 % 87 % 74 % 1009,1 hPa 0,0 l/m 3,2 km/h (1 Bft) 0 min 6,4 km/h (2 Bft)
09.06.2010 15:32 22,7 C 18,5 C 4,8 UV-I 2,5 C 64 % 88 % 71 % 1008,4 hPa 0,0 l/m 2,8 km/h (1 Bft) 0 min 3,2 km/h (1 Bft)
09.06.2010 15:34 22,7 C 18,5 C 4,8 UV-I 2,5 C 64 % 87 % 71 % 1008,4 hPa 0,0 l/m 2,8 km/h (1 Bft) 0 min 4,8 km/h (1 Bft)
09.06.2010 15:36 22,7 C 18,7 C 5,0 UV-I 2,3 C 64 % 88 % 66 % 1008,4 hPa 0,0 l/m 2,4 km/h (1 Bft) 0 min 0,0 km/h (0 Bft)
09.06.2010 15:38 22,7 C 18,7 C 5,0 UV-I 2,4 C 64 % 88 % 69 % 1008,4 hPa 0,0 l/m 2,8 km/h (1 Bft) 0 min 9,0 km/h (2 Bft)
09.06.2010 15:42 22,8 C 18,6 C 4,7 UV-I 2,4 C 64 % 87 % 69 % 1008,4 hPa 0,0 l/m 3,2 km/h (1 Bft) 0 min 3,9 km/h (1 Bft)
09.06.2010 15:44 22,8 C 18,7 C 4,7 UV-I 2,2 C 64 % 88 % 63 % 1008,4 hPa 0,0 l/m 2,8 km/h (1 Bft) 0 min 0,0 km/h (0 Bft)
09.06.2010 15:48 22,8 C 18,7 C 4,4 UV-I 2,1 C 64 % 87 % 60 % 1008,4 hPa 0,0 l/m 2,4 km/h (1 Bft) 0 min 0,0 km/h (0 Bft)
09.06.2010 15:50 22,8 C 18,7 C 4,4 UV-I 2,0 C 64 % 87 % 57 % 1008,4 hPa 0,0 l/m 1,2 km/h (1 Bft) 0 min 0,0 km/h (0 Bft)
09.06.2010 15:56 22,8 C 18,8 C 5,6 UV-I 2,2 C 64 % 86 % 63 % 1009,0 hPa 0,0 l/m 0,8 km/h (0 Bft) 0 min 3,5 km/h (1 Bft)
09.06.2010 15:58 22,8 C 18,8 C 5,6 UV-I 2,2 C 64 % 85 % 63 % 1009,0 hPa 0,0 l/m 0,8 km/h (0 Bft) 0 min 4,8 km/h (1 Bft)
09.06.2010 16:00 22,8 C 18,8 C 5,6 UV-I 2,5 C 64 % 86 % 71 % 1009,0 hPa 0,0 l/m 0,8 km/h (0 Bft) 0 min 0,0 km/h (0 Bft)
09.06.2010 16:02 22,8 C 18,8 C 6,4 UV-I 2,7 C 64 % 86 % 77 % 1009,0 hPa 0,0 l/m 1,2 km/h (1 Bft) 0 min 6,1 km/h (2 Bft)
09.06.2010 16:04 22,8 C 18,9 C 6,4 UV-I 2,9 C 64 % 86 % 83 % 1009,0 hPa 0,0 l/m 2,0 km/h (1 Bft) 2 min 0,0 km/h (0 Bft)
09.06.2010 16:06 22,9 C 19,0 C 6,8 UV-I 3,0 C 64 % 86 % 86 % 1009,0 hPa 0,0 l/m 2,0 km/h (1 Bft) 2 min 4,5 km/h (1 Bft)
09.06.2010 16:08 22,9 C 19,1 C 6,8 UV-I 3,1 C 64 % 85 % 89 % 1009,0 hPa 0,0 l/m 2,0 km/h (1 Bft) 2 min 3,5 km/h (1 Bft)
09.06.2010 16:12 22,9 C 19,1 C 6,9 UV-I 3,5 C 63 % 85 % 100 % 1009,1 hPa 0,0 l/m 2,0 km/h (1 Bft) 2 min 0,0 km/h (0 Bft)
09.06.2010 16:14 22,9 C 19,3 C 6,9 UV-I 3,4 C 63 % 85 % 97 % 1009,1 hPa 0,0 l/m 0,8 km/h (0 Bft) 2 min 0,0 km/h (0 Bft)
09.06.2010 16:16 23,0 C 19,3 C 7,8 UV-I 3,8 C 63 % 85 % 100 % 1009,1 hPa 0,0 l/m 1,2 km/h (1 Bft) 2 min 4,2 km/h (1 Bft)
09.06.2010 16:22 23,0 C 19,5 C 7,6 UV-I 4,0 C 63 % 83 % 100 % 1009,1 hPa 0,0 l/m 2,8 km/h (1 Bft) 2 min 8,4 km/h (2 Bft)
09.06.2010 16:24 23,1 C 19,5 C 7,6 UV-I 4,0 C 63 % 83 % 100 % 1009,1 hPa 0,0 l/m 3,2 km/h (1 Bft) 2 min 12,6 km/h (3 Bft)
09.06.2010 16:26 23,1 C 19,6 C 7,3 UV-I 3,9 C 63 % 83 % 100 % 1009,1 hPa 0,0 l/m 4,8 km/h (1 Bft) 2 min 7,7 km/h (2 Bft)
09.06.2010 16:30 23,2 C 19,5 C 7,3 UV-I 3,9 C 63 % 82 % 100 % 1009,1 hPa 0,0 l/m 4,4 km/h (1 Bft) 2 min 6,8 km/h (2 Bft)
09.06.2010 16:32 23,2 C 19,5 C 6,7 UV-I 3,8 C 63 % 83 % 100 % 1009,1 hPa 0,0 l/m 4,4 km/h (1 Bft) 2 min 12,6 km/h (3 Bft)
09.06.2010 16:34 23,2 C 19,6 C 6,7 UV-I 3,7 C 62 % 83 % 100 % 1009,1 hPa 0,0 l/m 4,4 km/h (1 Bft) 2 min 3,9 km/h (1 Bft)
09.06.2010 16:38 23,2 C 19,5 C 5,7 UV-I 3,4 C 62 % 82 % 97 % 1009,1 hPa 0,0 l/m 2,0 km/h (1 Bft) 2 min 6,8 km/h (2 Bft)
09.06.2010 16:44 23,3 C 19,6 C 6,1 UV-I 3,3 C 62 % 81 % 94 % 1009,1 hPa 0,0 l/m 3,2 km/h (1 Bft) 2 min 5,1 km/h (1 Bft)
09.06.2010 16:48 23,2 C 19,6 C 7,9 UV-I 3,6 C 62 % 81 % 100 % 1009,1 hPa 0,0 l/m 4,0 km/h (1 Bft) 2 min 7,7 km/h (2 Bft)
09.06.2010 16:52 23,4 C 19,9 C 6,7 UV-I 3,4 C 62 % 82 % 97 % 1009,6 hPa 0,0 l/m 4,0 km/h (1 Bft) 2 min 0,0 km/h (0 Bft)
09.06.2010 16:54 23,4 C 19,9 C 6,7 UV-I 3,4 C 62 % 81 % 97 % 1009,6 hPa 0,0 l/m 3,2 km/h (1 Bft) 2 min 0,0 km/h (0 Bft)
09.06.2010 16:58 23,4 C 19,8 C 5,3 UV-I 3,3 C 62 % 80 % 94 % 1009,6 hPa 0,0 l/m 3,2 km/h (1 Bft) 2 min 7,4 km/h (2 Bft)
09.06.2010 17:00 23,4 C 19,9 C 5,3 UV-I 3,2 C 61 % 81 % 91 % 1009,6 hPa 0,0 l/m 3,2 km/h (1 Bft) 2 min 4,8 km/h (1 Bft)
09.06.2010 17:08 23,6 C 20,1 C 7,6 UV-I 3,9 C 61 % 80 % 100 % 1009,6 hPa 0,0 l/m 4,8 km/h (1 Bft) 2 min 6,8 km/h (2 Bft)
09.06.2010 17:12 23,6 C 20,1 C 5,7 UV-I 3,6 C 61 % 82 % 100 % 1009,6 hPa 0,0 l/m 2,0 km/h (1 Bft) 2 min 0,0 km/h (0 Bft)
09.06.2010 17:16 23,6 C 20,0 C 5,7 UV-I 3,5 C 61 % 80 % 100 % 1009,6 hPa 0,0 l/m 1,6 km/h (1 Bft) 2 min 0,0 km/h (0 Bft)
09.06.2010 17:18 23,6 C 20,0 C 5,7 UV-I 3,1 C 61 % 80 % 89 % 1009,6 hPa 0,0 l/m 0,8 km/h (0 Bft) 2 min 0,0 km/h (0 Bft)
09.06.2010 17:20 23,6 C 20,0 C 5,7 UV-I 2,9 C 61 % 80 % 83 % 1009,6 hPa 0,0 l/m 0,8 km/h (0 Bft) 2 min 4,8 km/h (1 Bft)
09.06.2010 17:22 23,6 C 19,9 C 3,5 UV-I 2,7 C 61 % 80 % 77 % 1009,6 hPa 0,0 l/m 2,4 km/h (1 Bft) 0 min 11,9 km/h (2 Bft)
09.06.2010 17:24 23,6 C 19,9 C 3,5 UV-I 2,3 C 61 % 81 % 66 % 1009,6 hPa 0,0 l/m 3,2 km/h (1 Bft) 0 min 5,8 km/h (2 Bft)
09.06.2010 17:26 23,6 C 19,8 C 3,7 UV-I 2,2 C 61 % 80 % 63 % 1009,6 hPa 0,0 l/m 4,0 km/h (1 Bft) 0 min 7,7 km/h (2 Bft)
09.06.2010 17:28 23,6 C 19,7 C 3,7 UV-I 2,1 C 61 % 81 % 60 % 1009,6 hPa 0,0 l/m 4,8 km/h (1 Bft) 0 min 4,8 km/h (1 Bft)
09.06.2010 17:30 23,6 C 19,7 C 3,7 UV-I 2,0 C 61 % 81 % 57 % 1009,6 hPa 0,0 l/m 6,0 km/h (2 Bft) 0 min 6,8 km/h (2 Bft)
09.06.2010 17:34 23,6 C 19,7 C 3,8 UV-I 1,7 C 60 % 82 % 49 % 1009,0 hPa 0,0 l/m 4,0 km/h (1 Bft) 0 min 0,0 km/h (0 Bft)
09.06.2010 17:36 23,6 C 19,7 C 3,9 UV-I 1,7 C 60 % 82 % 49 % 1009,0 hPa 0,0 l/m 3,2 km/h (1 Bft) 0 min 0,0 km/h (0 Bft)
09.06.2010 17:38 23,6 C 19,7 C 3,9 UV-I 1,7 C 61 % 82 % 49 % 1009,0 hPa 0,0 l/m 3,2 km/h (1 Bft) 0 min 8,4 km/h (2 Bft)
09.06.2010 17:40 23,6 C 19,9 C 3,9 UV-I 1,6 C 60 % 82 % 46 % 1009,0 hPa 0,0 l/m 2,4 km/h (1 Bft) 0 min 8,0 km/h (2 Bft)
09.06.2010 17:42 23,6 C 19,9 C 4,3 UV-I 1,7 C 61 % 82 % 49 % 1009,0 hPa 0,0 l/m 2,0 km/h (1 Bft) 0 min 3,9 km/h (1 Bft)
09.06.2010 17:44 23,6 C 19,9 C 4,3 UV-I 1,7 C 60 % 82 % 49 % 1009,0 hPa 0,0 l/m 2,0 km/h (1 Bft) 0 min 0,0 km/h (0 Bft)
09.06.2010 17:46 23,6 C 19,8 C 4,2 UV-I 1,8 C 61 % 82 % 51 % 1009,0 hPa 0,0 l/m 3,2 km/h (1 Bft) 0 min 8,0 km/h (2 Bft)
09.06.2010 17:48 23,6 C 19,9 C 4,2 UV-I 1,7 C 61 % 82 % 49 % 1009,0 hPa 0,0 l/m 3,2 km/h (1 Bft) 0 min 0,0 km/h (0 Bft)
09.06.2010 17:50 23,6 C 19,9 C 4,2 UV-I 1,8 C 61 % 83 % 51 % 1009,0 hPa 0,0 l/m 3,2 km/h (1 Bft) 0 min 9,7 km/h (2 Bft)
09.06.2010 17:52 23,6 C 19,9 C 3,5 UV-I 1,7 C 60 % 82 % 49 % 1008,7 hPa 0,0 l/m 3,6 km/h (1 Bft) 0 min 4,8 km/h (1 Bft)
09.06.2010 17:54 23,6 C 19,9 C 3,5 UV-I 1,7 C 61 % 83 % 49 % 1008,7 hPa 0,0 l/m 4,4 km/h (1 Bft) 0 min 10,6 km/h (2 Bft)
09.06.2010 17:56 23,6 C 19,9 C 3,2 UV-I 1,5 C 61 % 82 % 43 % 1008,7 hPa 0,0 l/m 4,4 km/h (1 Bft) 0 min 0,0 km/h (0 Bft)
09.06.2010 17:58 23,5 C 19,9 C 3,2 UV-I 1,5 C 61 % 83 % 43 % 1008,7 hPa 0,0 l/m 3,6 km/h (1 Bft) 0 min 0,0 km/h (0 Bft)
09.06.2010 18:00 23,5 C 19,8 C 3,2 UV-I 1,5 C 61 % 83 % 43 % 1008,7 hPa 0,0 l/m 4,4 km/h (1 Bft) 0 min 6,4 km/h (2 Bft)
09.06.2010 18:02 23,5 C 19,9 C 3,1 UV-I 1,4 C 60 % 83 % 40 % 1008,7 hPa 0,0 l/m 3,6 km/h (1 Bft) 0 min 0,0 km/h (0 Bft)
09.06.2010 18:04 23,5 C 19,8 C 3,1 UV-I 1,5 C 60 % 84 % 43 % 1008,7 hPa 0,0 l/m 2,8 km/h (1 Bft) 0 min 0,0 km/h (0 Bft)
09.06.2010 18:06 23,5 C 19,9 C 3,1 UV-I 1,4 C 61 % 84 % 40 % 1008,7 hPa 0,0 l/m 1,6 km/h (1 Bft) 0 min 0,0 km/h (0 Bft)
09.06.2010 18:08 23,5 C 19,9 C 3,1 UV-I 1,5 C 61 % 84 % 43 % 1008,7 hPa 0,0 l/m 1,6 km/h (1 Bft) 0 min 3,5 km/h (1 Bft)
09.06.2010 18:10 23,5 C 20,0 C 3,1 UV-I 1,4 C 61 % 84 % 40 % 1008,7 hPa 0,0 l/m 1,6 km/h (1 Bft) 0 min 0,0 km/h (0 Bft)
09.06.2010 18:12 23,5 C 20,1 C 3,2 UV-I 1,3 C 61 % 84 % 37 % 1008,3 hPa 0,0 l/m 0,4 km/h (0 Bft) 0 min 0,0 km/h (0 Bft)
09.06.2010 18:14 23,5 C 20,1 C 3,2 UV-I 1,5 C 61 % 84 % 43 % 1008,3 hPa 0,0 l/m 0,4 km/h (0 Bft) 0 min 0,0 km/h (0 Bft)
09.06.2010 18:16 23,5 C 20,1 C 3,9 UV-I 1,7 C 61 % 84 % 49 % 1008,3 hPa 0,0 l/m 0,4 km/h (0 Bft) 0 min 0,0 km/h (0 Bft)
09.06.2010 18:18 23,5 C 20,2 C 3,9 UV-I 1,8 C 61 % 83 % 51 % 1008,3 hPa 0,0 l/m 0,8 km/h (0 Bft) 0 min 3,9 km/h (1 Bft)
09.06.2010 18:20 23,5 C 20,5 C 3,9 UV-I 1,7 C 61 % 82 % 49 % 1008,3 hPa 0,0 l/m 0,8 km/h (0 Bft) 0 min 0,0 km/h (0 Bft)
09.06.2010 18:22 23,5 C 20,5 C 4,2 UV-I 1,9 C 61 % 82 % 54 % 1008,3 hPa 0,0 l/m 0,8 km/h (0 Bft) 0 min 4,2 km/h (1 Bft)
09.06.2010 18:24 23,5 C 20,5 C 4,2 UV-I 2,2 C 61 % 82 % 63 % 1008,3 hPa 0,0 l/m 1,2 km/h (1 Bft) 0 min 0,0 km/h (0 Bft)
09.06.2010 18:26 23,5 C 20,7 C 4,1 UV-I 2,2 C 61 % 82 % 63 % 1008,3 hPa 0,0 l/m 1,6 km/h (1 Bft) 0 min 4,5 km/h (1 Bft)
09.06.2010 18:28 23,5 C 20,7 C 4,1 UV-I 2,4 C 61 % 82 % 69 % 1008,3 hPa 0,0 l/m 1,6 km/h (1 Bft) 0 min 0,0 km/h (0 Bft)
09.06.2010 18:30 23,5 C 20,7 C 4,1 UV-I 2,4 C 61 % 80 % 69 % 1008,3 hPa 0,0 l/m 2,0 km/h (1 Bft) 0 min 5,5 km/h (1 Bft)
09.06.2010 18:32 23,4 C 20,8 C 3,6 UV-I 2,2 C 61 % 80 % 63 % 1008,2 hPa 0,0 l/m 2,0 km/h (1 Bft) 0 min 0,0 km/h (0 Bft)
09.06.2010 18:34 23,5 C 20,8 C 3,6 UV-I 2,0 C 61 % 80 % 57 % 1008,2 hPa 0,0 l/m 1,6 km/h (1 Bft) 0 min 0,0 km/h (0 Bft)
09.06.2010 18:36 23,5 C 20,7 C 3,3 UV-I 2,0 C 61 % 80 % 57 % 1008,2 hPa 0,0 l/m 1,6 km/h (1 Bft) 0 min 0,0 km/h (0 Bft)
09.06.2010 18:38 23,4 C 20,7 C 3,3 UV-I 1,9 C 61 % 80 % 54 % 1008,2 hPa 0,0 l/m 1,2 km/h (1 Bft) 0 min 0,0 km/h (0 Bft)
09.06.2010 18:40 23,4 C 20,7 C 3,3 UV-I 1,8 C 61 % 79 % 51 % 1008,2 hPa 0,0 l/m 0,8 km/h (0 Bft) 0 min 3,2 km/h (1 Bft)
09.06.2010 18:42 23,4 C 20,7 C 2,9 UV-I 1,7 C 61 % 78 % 49 % 1008,2 hPa 0,0 l/m 0,4 km/h (0 Bft) 0 min 3,9 km/h (1 Bft)
09.06.2010 18:44 23,4 C 20,8 C 2,9 UV-I 1,4 C 61 % 78 % 40 % 1008,2 hPa 0,0 l/m 0,8 km/h (0 Bft) 0 min 0,0 km/h (0 Bft)
09.06.2010 18:46 23,4 C 20,7 C 3,0 UV-I 1,4 C 61 % 79 % 40 % 1008,2 hPa 0,0 l/m 0,8 km/h (0 Bft) 0 min 0,0 km/h (0 Bft)
09.06.2010 18:48 23,4 C 20,8 C 3,0 UV-I 1,2 C 61 % 79 % 34 % 1008,2 hPa 0,0 l/m 0,8 km/h (0 Bft) 0 min 0,0 km/h (0 Bft)
09.06.2010 18:50 23,4 C 20,7 C 3,0 UV-I 1,3 C 61 % 78 % 37 % 1008,2 hPa 0,0 l/m 1,6 km/h (1 Bft) 0 min 0,0 km/h (0 Bft)
09.06.2010 18:52 23,4 C 20,8 C 3,5 UV-I 1,3 C 61 % 79 % 37 % 1008,1 hPa 0,0 l/m 1,6 km/h (1 Bft) 0 min 3,2 km/h (1 Bft)
09.06.2010 18:54 23,4 C 20,8 C 3,5 UV-I 1,4 C 61 % 79 % 40 % 1008,1 hPa 0,0 l/m 1,2 km/h (1 Bft) 0 min 4,8 km/h (1 Bft)
09.06.2010 18:56 23,4 C 20,8 C 3,7 UV-I 1,6 C 61 % 78 % 46 % 1008,1 hPa 0,0 l/m 1,2 km/h (1 Bft) 0 min 0,0 km/h (0 Bft)
09.06.2010 18:58 23,4 C 20,8 C 3,7 UV-I 1,6 C 61 % 78 % 46 % 1008,1 hPa 0,0 l/m 1,2 km/h (1 Bft) 0 min 3,5 km/h (1 Bft)
09.06.2010 19:00 23,4 C 20,9 C 3,7 UV-I 1,6 C 61 % 79 % 46 % 1008,1 hPa 0,0 l/m 1,2 km/h (1 Bft) 0 min 0,0 km/h (0 Bft)
09.06.2010 19:02 23,4 C 20,9 C 3,3 UV-I 1,6 C 61 % 78 % 46 % 1008,1 hPa 0,0 l/m 1,6 km/h (1 Bft) 0 min 6,4 km/h (2 Bft)
09.06.2010 19:04 23,4 C 20,9 C 3,3 UV-I 1,5 C 61 % 79 % 43 % 1008,1 hPa 0,0 l/m 1,6 km/h (1 Bft) 0 min 3,9 km/h (1 Bft)
09.06.2010 19:06 23,4 C 20,9 C 3,0 UV-I 1,5 C 61 % 79 % 43 % 1008,1 hPa 0,0 l/m 1,2 km/h (1 Bft) 0 min 3,5 km/h (1 Bft)
09.06.2010 19:08 23,4 C 21,0 C 3,0 UV-I 1,2 C 61 % 79 % 34 % 1008,1 hPa 0,0 l/m 1,6 km/h (1 Bft) 0 min 0,0 km/h (0 Bft)
09.06.2010 19:12 23,4 C 20,9 C 2,7 UV-I 1,1 C 61 % 79 % 31 % 1008,1 hPa 0,0 l/m 1,6 km/h (1 Bft) 0 min 4,2 km/h (1 Bft)
09.06.2010 19:14 23,4 C 20,9 C 2,7 UV-I 1,0 C 61 % 79 % 29 % 1008,1 hPa 0,0 l/m 0,8 km/h (0 Bft) 0 min 0,0 km/h (0 Bft)
09.06.2010 19:16 23,4 C 20,9 C 2,4 UV-I 1,0 C 61 % 79 % 29 % 1008,1 hPa 0,0 l/m 0,8 km/h (0 Bft) 0 min 4,8 km/h (1 Bft)
09.06.2010 19:18 23,4 C 21,0 C 2,4 UV-I 0,8 C 61 % 78 % 23 % 1008,1 hPa 0,0 l/m 0,8 km/h (0 Bft) 0 min 0,0 km/h (0 Bft)
09.06.2010 19:22 23,4 C 20,9 C 2,2 UV-I 0,6 C 61 % 78 % 17 % 1008,1 hPa 0,0 l/m 0,4 km/h (0 Bft) 0 min 0,0 km/h (0 Bft)
09.06.2010 19:24 23,4 C 20,9 C 2,2 UV-I 0,5 C 61 % 78 % 14 % 1008,1 hPa 0,0 l/m 0,4 km/h (0 Bft) 0 min 0,0 km/h (0 Bft)
09.06.2010 19:26 23,4 C 20,9 C 2,0 UV-I 0,3 C 61 % 78 % 9 % 1008,1 hPa 0,0 l/m 0,4 km/h (0 Bft) 0 min 0,0 km/h (0 Bft)
09.06.2010 19:28 23,4 C 20,8 C 2,0 UV-I 0,4 C 61 % 78 % 11 % 1008,1 hPa 0,0 l/m 0,0 km/h (0 Bft) 0 min 0,0 km/h (0 Bft)
09.06.2010 19:30 23,4 C 20,8 C 2,0 UV-I 0,2 C 61 % 78 % 6 % 1008,1 hPa 0,0 l/m 0,0 km/h (0 Bft) 0 min 0,0 km/h (0 Bft)
09.06.2010 19:32 23,4 C 20,9 C 1,8 UV-I 0,1 C 61 % 78 % 3 % 1007,9 hPa 0,0 l/m 0,0 km/h (0 Bft) 0 min 3,9 km/h (1 Bft)
09.06.2010 19:34 23,4 C 20,8 C 1,8 UV-I 0,2 C 61 % 79 % 6 % 1007,9 hPa 0,0 l/m 0,0 km/h (0 Bft) 0 min 0,0 km/h (0 Bft)
09.06.2010 19:38 23,4 C 20,7 C 1,8 UV-I 0,2 C 61 % 79 % 6 % 1007,9 hPa 0,0 l/m 0,8 km/h (0 Bft) 0 min 3,9 km/h (1 Bft)
09.06.2010 19:40 23,4 C 20,7 C 1,8 UV-I 0,1 C 61 % 79 % 3 % 1007,9 hPa 0,0 l/m 1,2 km/h (1 Bft) 0 min 4,5 km/h (1 Bft)
09.06.2010 19:42 23,2 C 20,6 C 1,7 UV-I 0,2 C 61 % 79 % 6 % 1007,9 hPa 0,0 l/m 1,6 km/h (1 Bft) 0 min 0,0 km/h (0 Bft)
09.06.2010 19:44 23,2 C 20,6 C 1,7 UV-I 0,1 C 61 % 79 % 3 % 1007,9 hPa 0,0 l/m 1,6 km/h (1 Bft) 0 min 3,2 km/h (1 Bft)
09.06.2010 19:46 23,2 C 20,7 C 1,6 UV-I 0,0 C 61 % 80 % 0 % 1007,9 hPa 0,0 l/m 2,4 km/h (1 Bft) 0 min 0,0 km/h (0 Bft)
09.06.2010 19:48 23,2 C 20,7 C 1,6 UV-I 0,0 C 61 % 80 % 0 % 1007,9 hPa 0,0 l/m 2,0 km/h (1 Bft) 0 min 0,0 km/h (0 Bft)
09.06.2010 19:50 23,3 C 20,5 C 1,6 UV-I 0,2 C 61 % 80 % 6 % 1007,9 hPa 0,0 l/m 2,4 km/h (1 Bft) 0 min 0,0 km/h (0 Bft)
09.06.2010 19:52 23,3 C 20,6 C 1,7 UV-I 0,1 C 61 % 80 % 3 % 1007,9 hPa 0,0 l/m 1,6 km/h (1 Bft) 0 min 0,0 km/h (0 Bft)
09.06.2010 19:54 23,2 C 20,7 C 1,7 UV-I 0,0 C 61 % 80 % 0 % 1007,9 hPa 0,0 l/m 1,6 km/h (1 Bft) 0 min 3,9 km/h (1 Bft)
09.06.2010 19:58 23,3 C 20,5 C 1,6 UV-I 0,1 C 61 % 80 % 3 % 1007,9 hPa 0,0 l/m 1,2 km/h (1 Bft) 0 min 0,0 km/h (0 Bft)
09.06.2010 20:00 23,2 C 20,5 C 1,6 UV-I 0,1 C 61 % 81 % 3 % 1007,9 hPa 0,0 l/m 0,8 km/h (0 Bft) 0 min 0,0 km/h (0 Bft)
09.06.2010 20:04 23,2 C 20,5 C 1,4 UV-I 0,0 C 61 % 81 % 0 % 1007,9 hPa 0,0 l/m 0,4 km/h (0 Bft) 0 min 0,0 km/h (0 Bft)
09.06.2010 20:06 23,2 C 20,5 C 1,2 UV-I 0,0 C 61 % 80 % 0 % 1007,9 hPa 0,0 l/m 0,0 km/h (0 Bft) 0 min 0,0 km/h (0 Bft)
09.06.2010 20:08 23,2 C 20,5 C 1,2 UV-I 0,0 C 61 % 81 % 0 % 1007,9 hPa 0,0 l/m 0,0 km/h (0 Bft) 0 min 0,0 km/h (0 Bft)
09.06.2010 20:10 23,2 C 20,5 C 1,2 UV-I 0,0 C 61 % 80 % 0 % 1007,9 hPa 0,0 l/m 0,0 km/h (0 Bft) 0 min 0,0 km/h (0 Bft)
09.06.2010 20:12 23,2 C 20,5 C 1,2 UV-I 0,0 C 61 % 81 % 0 % 1007,9 hPa 0,0 l/m 0,0 km/h (0 Bft) 0 min 0,0 km/h (0 Bft)
09.06.2010 20:14 23,2 C 20,5 C 1,2 UV-I 0,0 C 61 % 81 % 0 % 1007,9 hPa 0,0 l/m 0,0 km/h (0 Bft) 0 min 0,0 km/h (0 Bft)
09.06.2010 20:20 23,2 C 20,4 C 1,0 UV-I 0,1 C 61 % 81 % 3 % 1007,9 hPa 0,0 l/m 0,0 km/h (0 Bft) 0 min 0,0 km/h (0 Bft)
09.06.2010 20:22 23,2 C 20,5 C 1,0 UV-I 0,0 C 61 % 81 % 0 % 1007,9 hPa 0,0 l/m 0,0 km/h (0 Bft) 0 min 0,0 km/h (0 Bft)
09.06.2010 20:24 23,1 C 20,5 C 1,0 UV-I 0,0 C 61 % 82 % 0 % 1007,9 hPa 0,0 l/m 0,0 km/h (0 Bft) 0 min 0,0 km/h (0 Bft)
09.06.2010 20:26 23,2 C 20,4 C 0,8 UV-I 0,1 C 61 % 81 % 3 % 1007,9 hPa 0,0 l/m 0,0 km/h (0 Bft) 0 min 0,0 km/h (0 Bft)
09.06.2010 20:28 23,1 C 20,4 C 0,8 UV-I 0,0 C 61 % 81 % 0 % 1007,9 hPa 0,0 l/m 0,0 km/h (0 Bft) 0 min 0,0 km/h (0 Bft)
09.06.2010 20:32 23,1 C 20,4 C 0,6 UV-I 0,0 C 62 % 82 % 0 % 1008,0 hPa 0,0 l/m 0,0 km/h (0 Bft) 0 min 0,0 km/h (0 Bft)
09.06.2010 20:34 23,1 C 20,4 C 0,6 UV-I 0,0 C 62 % 82 % 0 % 1008,0 hPa 0,0 l/m 0,0 km/h (0 Bft) 0 min 0,0 km/h (0 Bft)
09.06.2010 20:38 23,1 C 20,5 C 0,4 UV-I 0,0 C 62 % 82 % 0 % 1008,0 hPa 0,0 l/m 0,0 km/h (0 Bft) 0 min 0,0 km/h (0 Bft)
09.06.2010 20:40 23,1 C 20,5 C 0,4 UV-I 0,0 C 62 % 82 % 0 % 1008,0 hPa 0,0 l/m 0,0 km/h (0 Bft) 0 min 0,0 km/h (0 Bft)
09.06.2010 20:42 23,1 C 20,5 C 0,3 UV-I 0,0 C 62 % 82 % 0 % 1008,0 hPa 0,0 l/m 0,0 km/h (0 Bft) 0 min 0,0 km/h (0 Bft)
09.06.2010 20:44 23,1 C 20,4 C 0,3 UV-I 0,0 C 62 % 82 % 0 % 1008,0 hPa 0,0 l/m 0,0 km/h (0 Bft) 0 min 0,0 km/h (0 Bft)
09.06.2010 20:48 23,0 C 20,4 C 0,2 UV-I 0,0 C 62 % 82 % 0 % 1008,0 hPa 0,0 l/m 0,0 km/h (0 Bft) 0 min 0,0 km/h (0 Bft)
09.06.2010 20:56 23,0 C 20,3 C 0,2 UV-I 0,0 C 62 % 82 % 0 % 1007,9 hPa 0,0 l/m 0,0 km/h (0 Bft) 0 min 4,2 km/h (1 Bft)
09.06.2010 20:58 23,0 C 20,2 C 0,2 UV-I 0,0 C 62 % 82 % 0 % 1007,9 hPa 0,0 l/m 0,4 km/h (0 Bft) 0 min 0,0 km/h (0 Bft)
09.06.2010 21:00 23,0 C 20,3 C 0,2 UV-I 0,0 C 62 % 82 % 0 % 1007,9 hPa 0,0 l/m 0,4 km/h (0 Bft) 0 min 0,0 km/h (0 Bft)
09.06.2010 21:04 22,9 C 20,2 C 0,2 UV-I 0,0 C 62 % 83 % 0 % 1007,9 hPa 0,0 l/m 0,4 km/h (0 Bft) 0 min 0,0 km/h (0 Bft)
09.06.2010 21:06 22,9 C 20,1 C 0,2 UV-I 0,0 C 62 % 83 % 0 % 1007,9 hPa 0,0 l/m 0,4 km/h (0 Bft) 0 min 0,0 km/h (0 Bft)
09.06.2010 21:16 22,9 C 20,0 C 0,1 UV-I 0,0 C 62 % 84 % 0 % 1008,4 hPa 0,0 l/m 0,4 km/h (0 Bft) 0 min 0,0 km/h (0 Bft)
09.06.2010 21:18 22,9 C 20,1 C 0,1 UV-I 0,0 C 62 % 84 % 0 % 1008,4 hPa 0,0 l/m 0,4 km/h (0 Bft) 0 min 0,0 km/h (0 Bft)
09.06.2010 21:20 22,8 C 20,1 C 0,1 UV-I 0,0 C 62 % 84 % 0 % 1008,4 hPa 0,0 l/m 0,0 km/h (0 Bft) 0 min 0,0 km/h (0 Bft)
09.06.2010 21:22 22,8 C 20,0 C 0,1 UV-I 0,0 C 62 % 84 % 0 % 1008,4 hPa 0,0 l/m 0,0 km/h (0 Bft) 0 min 0,0 km/h (0 Bft)
09.06.2010 21:24 22,8 C 20,0 C 0,1 UV-I 0,0 C 62 % 84 % 0 % 1008,4 hPa 0,0 l/m 0,0 km/h (0 Bft) 0 min 0,0 km/h (0 Bft)
09.06.2010 21:28 22,8 C 19,8 C 0,0 UV-I 0,0 C 62 % 85 % 0 % 1008,4 hPa 0,0 l/m 0,0 km/h (0 Bft) 0 min 0,0 km/h (0 Bft)
09.06.2010 21:30 22,8 C 19,9 C 0,0 UV-I 0,0 C 63 % 85 % 0 % 1008,4 hPa 0,0 l/m 0,0 km/h (0 Bft) 0 min 0,0 km/h (0 Bft)
09.06.2010 21:32 22,8 C 19,8 C 0,0 UV-I 0,0 C 63 % 85 % 0 % 1008,4 hPa 0,0 l/m 0,0 km/h (0 Bft) 0 min 0,0 km/h (0 Bft)
09.06.2010 21:34 22,8 C 19,9 C 0,0 UV-I 0,0 C 63 % 85 % 0 % 1008,4 hPa 0,0 l/m 0,0 km/h (0 Bft) 0 min 0,0 km/h (0 Bft)
09.06.2010 21:36 22,8 C 19,8 C 0,0 UV-I 0,0 C 63 % 85 % 0 % 1008,4 hPa 0,0 l/m 0,0 km/h (0 Bft) 0 min 0,0 km/h (0 Bft)
09.06.2010 21:38 22,8 C 19,7 C 0,0 UV-I 0,0 C 63 % 85 % 0 % 1008,4 hPa 0,0 l/m 0,0 km/h (0 Bft) 0 min 0,0 km/h (0 Bft)
09.06.2010 21:52 22,7 C 19,6 C 0,0 UV-I 0,0 C 63 % 86 % 0 % 1008,2 hPa 0,0 l/m 0,4 km/h (0 Bft) 0 min 4,2 km/h (1 Bft)
09.06.2010 21:56 22,7 C 19,5 C 0,0 UV-I 0,0 C 63 % 87 % 0 % 1008,2 hPa 0,0 l/m 0,8 km/h (0 Bft) 0 min 4,5 km/h (1 Bft)
09.06.2010 21:58 22,7 C 19,4 C 0,0 UV-I 0,0 C 63 % 87 % 0 % 1008,2 hPa 0,0 l/m 1,2 km/h (1 Bft) 0 min 0,0 km/h (0 Bft)
09.06.2010 22:00 22,7 C 19,5 C 0,0 UV-I 0,0 C 63 % 87 % 0 % 1008,2 hPa 0,0 l/m 1,2 km/h (1 Bft) 0 min 0,0 km/h (0 Bft)
09.06.2010 22:06 22,6 C 19,3 C 0,0 UV-I 0,0 C 64 % 88 % 0 % 1008,2 hPa 0,0 l/m 0,8 km/h (0 Bft) 0 min 0,0 km/h (0 Bft)
09.06.2010 22:08 22,6 C 19,3 C 0,0 UV-I 0,0 C 64 % 88 % 0 % 1008,2 hPa 0,0 l/m 0,0 km/h (0 Bft) 0 min 0,0 km/h (0 Bft)
09.06.2010 22:10 22,6 C 19,2 C 0,0 UV-I 0,0 C 64 % 88 % 0 % 1008,2 hPa 0,0 l/m 0,4 km/h (0 Bft) 0 min 3,5 km/h (1 Bft)
09.06.2010 22:13 22,6 C 19,3 C 0,0 UV-I 0,0 C 63 % 88 % 0 % 1008,5 hPa 0,0 l/m 0,0 km/h (0 Bft) 0 min 0,0 km/h (0 Bft)
09.06.2010 22:16 22,6 C 19,2 C 0,0 UV-I 0,0 C 64 % 88 % 0 % 1008,5 hPa 0,0 l/m 0,0 km/h (0 Bft) 0 min 0,0 km/h (0 Bft)
09.06.2010 22:18 22,6 C 19,2 C 0,0 UV-I 0,0 C 64 % 88 % 0 % 1008,5 hPa 0,0 l/m 0,0 km/h (0 Bft) 0 min 0,0 km/h (0 Bft)
09.06.2010 22:20 22,6 C 19,1 C 0,0 UV-I 0,0 C 64 % 88 % 0 % 1008,5 hPa 0,0 l/m 0,0 km/h (0 Bft) 0 min 0,0 km/h (0 Bft)
09.06.2010 22:22 22,6 C 19,1 C 0,0 UV-I 0,0 C 64 % 88 % 0 % 1008,5 hPa 0,0 l/m 0,0 km/h (0 Bft) 0 min 0,0 km/h (0 Bft)
09.06.2010 22:24 22,6 C 19,1 C 0,0 UV-I 0,0 C 64 % 88 % 0 % 1008,5 hPa 0,0 l/m 0,0 km/h (0 Bft) 0 min 0,0 km/h (0 Bft)
09.06.2010 22:26 22,6 C 19,1 C 0,0 UV-I 0,0 C 64 % 88 % 0 % 1008,5 hPa 0,0 l/m 0,0 km/h (0 Bft) 0 min 0,0 km/h (0 Bft)
09.06.2010 22:28 22,6 C 19,0 C 0,0 UV-I 0,0 C 64 % 88 % 0 % 1008,5 hPa 0,0 l/m 0,0 km/h (0 Bft) 0 min 0,0 km/h (0 Bft)
09.06.2010 22:30 22,6 C 19,0 C 0,0 UV-I 0,0 C 64 % 89 % 0 % 1008,5 hPa 0,0 l/m 0,0 km/h (0 Bft) 0 min 0,0 km/h (0 Bft)
09.06.2010 22:32 22,6 C 18,9 C 0,0 UV-I 0,0 C 64 % 89 % 0 % 1008,5 hPa 0,0 l/m 0,0 km/h (0 Bft) 0 min 0,0 km/h (0 Bft)
09.06.2010 22:34 22,5 C 18,9 C 0,0 UV-I 0,0 C 64 % 89 % 0 % 1008,5 hPa 0,0 l/m 0,0 km/h (0 Bft) 0 min 0,0 km/h (0 Bft)
09.06.2010 22:36 22,6 C 18,9 C 0,0 UV-I 0,0 C 64 % 89 % 0 % 1008,5 hPa 0,0 l/m 0,4 km/h (0 Bft) 0 min 3,2 km/h (1 Bft)
09.06.2010 22:38 22,5 C 18,8 C 0,0 UV-I 0,0 C 64 % 89 % 0 % 1008,5 hPa 0,0 l/m 0,4 km/h (0 Bft) 0 min 0,0 km/h (0 Bft)
09.06.2010 22:40 22,5 C 18,8 C 0,0 UV-I 0,0 C 64 % 89 % 0 % 1008,5 hPa 0,0 l/m 0,4 km/h (0 Bft) 0 min 0,0 km/h (0 Bft)
09.06.2010 22:42 22,5 C 18,9 C 0,0 UV-I 0,0 C 64 % 89 % 0 % 1008,5 hPa 0,0 l/m 0,8 km/h (0 Bft) 0 min 4,5 km/h (1 Bft)
09.06.2010 22:44 22,5 C 18,8 C 0,0 UV-I 0,0 C 64 % 89 % 0 % 1008,5 hPa 0,0 l/m 1,6 km/h (1 Bft) 0 min 4,8 km/h (1 Bft)
09.06.2010 22:46 22,5 C 18,8 C 0,0 UV-I 0,0 C 64 % 89 % 0 % 1008,5 hPa 0,0 l/m 1,2 km/h (1 Bft) 0 min 5,8 km/h (2 Bft)
09.06.2010 22:48 22,5 C 18,8 C 0,0 UV-I 0,0 C 64 % 89 % 0 % 1008,5 hPa 0,0 l/m 1,2 km/h (1 Bft) 0 min 0,0 km/h (0 Bft)
09.06.2010 22:50 22,5 C 18,8 C 0,0 UV-I 0,0 C 64 % 89 % 0 % 1008,5 hPa 0,0 l/m 1,6 km/h (1 Bft) 0 min 0,0 km/h (0 Bft)
09.06.2010 22:52 22,5 C 18,7 C 0,0 UV-I 0,0 C 64 % 89 % 0 % 1008,5 hPa 0,0 l/m 1,2 km/h (1 Bft) 0 min 0,0 km/h (0 Bft)
09.06.2010 22:54 22,5 C 18,7 C 0,0 UV-I 0,0 C 64 % 89 % 0 % 1008,5 hPa 0,0 l/m 0,8 km/h (0 Bft) 0 min 3,2 km/h (1 Bft)
09.06.2010 22:56 22,5 C 18,7 C 0,0 UV-I 0,0 C 64 % 90 % 0 % 1008,5 hPa 0,0 l/m 0,8 km/h (0 Bft) 0 min 3,5 km/h (1 Bft)
09.06.2010 22:58 22,4 C 18,7 C 0,0 UV-I 0,0 C 64 % 90 % 0 % 1008,5 hPa 0,0 l/m 0,4 km/h (0 Bft) 0 min 0,0 km/h (0 Bft)
09.06.2010 23:00 22,4 C 18,6 C 0,0 UV-I 0,0 C 64 % 90 % 0 % 1008,5 hPa 0,0 l/m 0,4 km/h (0 Bft) 0 min 0,0 km/h (0 Bft)
09.06.2010 23:02 22,4 C 18,6 C 0,0 UV-I 0,0 C 64 % 90 % 0 % 1008,5 hPa 0,0 l/m 0,4 km/h (0 Bft) 0 min 0,0 km/h (0 Bft)
09.06.2010 23:04 22,4 C 18,7 C 0,0 UV-I 0,0 C 64 % 90 % 0 % 1008,5 hPa 0,0 l/m 0,4 km/h (0 Bft) 0 min 0,0 km/h (0 Bft)
09.06.2010 23:06 22,4 C 18,7 C 0,0 UV-I 0,0 C 64 % 90 % 0 % 1008,5 hPa 0,0 l/m 0,4 km/h (0 Bft) 0 min 0,0 km/h (0 Bft)
09.06.2010 23:08 22,4 C 18,6 C 0,0 UV-I 0,0 C 64 % 90 % 0 % 1008,5 hPa 0,0 l/m 0,0 km/h (0 Bft) 0 min 0,0 km/h (0 Bft)
09.06.2010 23:10 22,4 C 18,5 C 0,0 UV-I 0,0 C 64 % 90 % 0 % 1008,5 hPa 0,0 l/m 0,0 km/h (0 Bft) 0 min 0,0 km/h (0 Bft)
09.06.2010 23:12 22,4 C 18,5 C 0,0 UV-I 0,0 C 64 % 90 % 0 % 1008,6 hPa 0,0 l/m 0,0 km/h (0 Bft) 0 min 0,0 km/h (0 Bft)
09.06.2010 23:14 22,4 C 18,5 C 0,0 UV-I 0,0 C 64 % 90 % 0 % 1008,6 hPa 0,0 l/m 0,0 km/h (0 Bft) 0 min 0,0 km/h (0 Bft)
09.06.2010 23:16 22,4 C 18,5 C 0,0 UV-I 0,0 C 65 % 90 % 0 % 1008,6 hPa 0,0 l/m 0,0 km/h (0 Bft) 0 min 0,0 km/h (0 Bft)
09.06.2010 23:18 22,4 C 18,5 C 0,0 UV-I 0,0 C 65 % 90 % 0 % 1008,6 hPa 0,0 l/m 0,4 km/h (0 Bft) 0 min 3,2 km/h (1 Bft)
09.06.2010 23:20 22,4 C 18,5 C 0,0 UV-I 0,0 C 65 % 90 % 0 % 1008,6 hPa 0,0 l/m 0,4 km/h (0 Bft) 0 min 0,0 km/h (0 Bft)
09.06.2010 23:22 22,4 C 18,4 C 0,0 UV-I 0,0 C 65 % 90 % 0 % 1008,6 hPa 0,0 l/m 0,4 km/h (0 Bft) 0 min 0,0 km/h (0 Bft)
09.06.2010 23:24 22,4 C 18,5 C 0,0 UV-I 0,0 C 65 % 90 % 0 % 1008,6 hPa 0,0 l/m 0,4 km/h (0 Bft) 0 min 0,0 km/h (0 Bft)
09.06.2010 23:26 22,4 C 18,4 C 0,0 UV-I 0,0 C 65 % 90 % 0 % 1008,6 hPa 0,0 l/m 0,4 km/h (0 Bft) 0 min 0,0 km/h (0 Bft)
09.06.2010 23:28 22,4 C 18,4 C 0,0 UV-I 0,0 C 65 % 90 % 0 % 1008,6 hPa 0,0 l/m 0,4 km/h (0 Bft) 0 min 4,2 km/h (1 Bft)
09.06.2010 23:30 22,4 C 18,4 C 0,0 UV-I 0,0 C 65 % 91 % 0 % 1008,6 hPa 0,0 l/m 0,4 km/h (0 Bft) 0 min 0,0 km/h (0 Bft)
09.06.2010 23:32 22,4 C 18,4 C 0,0 UV-I 0,0 C 65 % 91 % 0 % 1008,2 hPa 0,0 l/m 0,0 km/h (0 Bft) 0 min 0,0 km/h (0 Bft)
09.06.2010 23:34 22,4 C 18,4 C 0,0 UV-I 0,0 C 65 % 91 % 0 % 1008,2 hPa 0,0 l/m 0,0 km/h (0 Bft) 0 min 0,0 km/h (0 Bft)
09.06.2010 23:36 22,4 C 18,4 C 0,0 UV-I 0,0 C 65 % 91 % 0 % 1008,2 hPa 0,0 l/m 0,0 km/h (0 Bft) 0 min 0,0 km/h (0 Bft)
09.06.2010 23:38 22,4 C 18,4 C 0,0 UV-I 0,0 C 65 % 91 % 0 % 1008,2 hPa 0,0 l/m 0,0 km/h (0 Bft) 0 min 0,0 km/h (0 Bft)
09.06.2010 23:40 22,4 C 18,4 C 0,0 UV-I 0,0 C 65 % 91 % 0 % 1008,2 hPa 0,0 l/m 0,0 km/h (0 Bft) 0 min 0,0 km/h (0 Bft)
09.06.2010 23:42 22,4 C 18,4 C 0,0 UV-I 0,0 C 65 % 91 % 0 % 1008,2 hPa 0,0 l/m 0,0 km/h (0 Bft) 0 min 0,0 km/h (0 Bft)
09.06.2010 23:44 22,4 C 18,5 C 0,0 UV-I 0,0 C 65 % 91 % 0 % 1008,2 hPa 0,0 l/m 0,0 km/h (0 Bft) 0 min 0,0 km/h (0 Bft)
09.06.2010 23:46 22,4 C 18,4 C 0,0 UV-I 0,0 C 65 % 91 % 0 % 1008,2 hPa 0,0 l/m 0,0 km/h (0 Bft) 0 min 0,0 km/h (0 Bft)
09.06.2010 23:48 22,4 C 18,4 C 0,0 UV-I 0,0 C 65 % 91 % 0 % 1008,2 hPa 0,0 l/m 0,0 km/h (0 Bft) 0 min 0,0 km/h (0 Bft)
09.06.2010 23:50 22,4 C 18,3 C 0,0 UV-I 0,0 C 65 % 91 % 0 % 1008,2 hPa 0,0 l/m 0,0 km/h (0 Bft) 0 min 0,0 km/h (0 Bft)
09.06.2010 23:52 22,4 C 18,3 C 0,0 UV-I 0,0 C 65 % 91 % 0 % 1008,2 hPa 0,0 l/m 0,0 km/h (0 Bft) 0 min 0,0 km/h (0 Bft)
09.06.2010 23:54 22,4 C 18,3 C 0,0 UV-I 0,0 C 65 % 91 % 0 % 1008,2 hPa 0,0 l/m 0,0 km/h (0 Bft) 0 min 0,0 km/h (0 Bft)
09.06.2010 23:58 22,4 C 18,3 C 0,0 UV-I 0,0 C 65 % 92 % 0 % 1008,2 hPa 0,1 l/m 0,0 km/h (0 Bft) 0 min 0,0 km/h (0 Bft)
_ Min-Zeit 06:10 05:56 00:00 00:00 17:34 18:42 00:00 06:12 - 00:00 - 00:00
Minimum _ 21,4 C 15,6 C 0,0 UV-I 0,0 C 60 % 78 % 0 % 1006,7 hPa - 0,0 km/h (0 Bft) - 0,0 km/h (0 Bft)
_ Max-Zeit 17:08 19:08 14:46 14:54 12:00 12:46 14:48 16:52 11:20 14:24 14:46 16:24
Maximum _ 23,6 C 21,0 C 10,1 UV-I 4,7 C 67 % 93 % 100 % 1009,6 hPa 0,6 l/m 6,4 km/h
W (2 Bft)
2 min 12,6 km/h
W (3 Bft)
Durchschnitt _ 22,3 C 18,0 C 1,6 UV-I 0,6 C 64 % 86 % 16 % 1007,8 hPa #4,6 l/m 1,0 km/h (0 Bft) #1:18 h 1,6 km/h (1 Bft)
© 2012 W. Hausmann